GFSFLT1_700_spd_009.txt.gz
Wind_Speed
8 8 9 11 11 12 12 12 12 12 11 11 11 11 10 9 9 10 10 9 9 10 12 13 13 13 13 13 13 11 10 9 8
10 11 11 12 13 14 13 13 12 10 11 12 12 11 10 9 9 10 10 11 11 12 13 13 14 13 13 14 13 12 11 10 10
11 12 13 14 14 14 13 13 12 11 12 13 12 11 10 9 9 10 10 12 12 14 15 14 15 15 14 14 14 13 11 10 9
13 13 13 13 14 14 14 14 13 12 13 13 13 12 11 10 11 10 11 13 14 14 16 16 16 15 15 15 15 14 12 11 11
13 13 12 12 13 14 14 14 14 13 13 13 13 13 13 11 12 13 13 14 15 16 16 17 17 16 16 15 15 15 14 13 12
11 11 10 12 13 14 14 14 14 14 14 14 14 14 14 14 13 13 15 15 16 17 17 18 19 18 18 17 17 16 16 15 15
11 12 13 14 15 16 15 15 15 14 14 14 14 14 15 15 15 15 16 17 18 19 19 20 20 21 21 20 20 19 19 18 18
13 14 15 16 17 17 17 16 15 14 14 15 15 15 15 16 16 16 17 17 20 21 22 22 23 23 23 23 23 22 22 22 22
12 14 15 16 17 16 16 16 16 16 17 17 17 17 16 17 17 16 17 18 20 23 24 25 26 27 26 26 26 26 26 26 26
10 10 10 12 13 14 15 15 14 15 17 19 20 19 20 20 21 20 21 21 22 23 25 27 29 29 30 31 31 30 30 30 30
12 12 12 14 16 17 17 18 18 17 18 18 19 20 21 23 24 23 23 24 25 25 27 29 31 32 33 33 34 35 35 36 36
18 19 19 19 21 23 24 25 25 24 24 23 24 25 25 25 25 26 26 25 27 28 28 29 31 33 35 36 37 37 39 40 41
24 25 24 25 27 29 30 32 32 31 29 28 28 30 30 29 29 29 29 28 29 29 29 29 31 33 35 37 39 41 41 42 43
30 32 31 31 32 32 34 35 35 34 33 34 35 35 34 33 33 32 31 32 32 31 29 30 31 32 33 36 39 41 43 45 46
31 31 30 31 33 32 33 35 37 37 37 40 40 39 39 39 37 36 36 35 35 36 34 33 32 31 32 34 36 39 41 43 46
31 31 31 32 32 33 35 37 38 39 41 46 46 46 44 42 41 40 40 39 39 41 39 37 35 33 33 34 35 36 38 41 43
30 32 33 34 36 36 38 41 42 43 43 48 52 55 51 45 42 43 43 43 44 43 44 41 40 38 37 36 36 35 36 38 40
29 32 35 36 39 39 40 42 44 46 45 47 49 52 55 54 48 45 45 44 46 44 45 46 44 42 42 41 41 40 37 37 38
32 33 35 37 38 39 39 41 44 45 48 46 46 47 49 51 56 51 47 43 46 45 45 47 48 47 46 45 45 44 41 38 40
35 36 38 39 41 42 43 43 44 45 47 46 43 45 48 46 51 54 54 53 46 47 46 46 49 49 48 48 47 46 44 40 42

GFSFLT1_700_spd_012.txt.gz
Wind_Speed
6 5 7 8 9 9 9 10 11 11 12 12 12 12 9 9 10 10 9 9 9 9 10 11 11 12 12 12 11 11 10 9 8
10 9 9 9 10 10 10 10 10 11 12 12 13 13 12 11 11 11 11 10 10 10 11 11 12 12 12 12 11 11 11 10 8
11 11 11 11 11 10 10 11 11 11 12 13 13 14 13 13 12 12 11 12 12 12 12 13 14 14 14 12 11 10 11 11 10
13 12 12 12 11 11 11 12 12 13 13 14 14 14 14 14 13 12 12 14 14 14 14 15 15 16 16 14 13 11 11 11 11
10 10 9 10 10 10 11 12 13 13 14 15 15 15 14 14 14 14 14 15 16 16 16 16 17 18 18 16 15 14 13 13 12
8 8 9 9 10 11 13 13 14 14 15 14 15 16 16 15 14 16 17 17 18 18 19 18 18 19 19 18 17 17 16 16 15
9 10 11 12 13 15 15 15 16 17 16 16 17 16 16 16 15 16 18 19 20 21 21 21 20 21 21 20 20 20 20 19 19
9 10 12 14 15 17 17 17 18 18 20 20 19 19 18 18 18 17 19 20 21 23 23 24 24 24 25 24 24 24 24 23 23
8 8 9 10 11 13 14 15 16 16 18 19 20 21 21 21 21 20 21 22 22 22 25 26 27 28 28 29 29 28 28 28 28
10 10 10 12 14 15 15 15 16 17 19 19 19 20 21 22 24 25 25 26 25 25 26 28 30 31 31 32 32 32 32 33 33
14 14 14 14 17 19 20 21 23 24 25 24 24 25 25 26 26 27 27 29 29 30 30 30 31 33 33 34 34 34 35 37 37
21 21 22 22 24 26 28 29 30 31 32 32 33 31 31 30 30 32 32 32 32 33 33 33 33 34 35 37 38 37 38 38 39
26 28 28 29 30 32 33 34 34 34 34 35 34 35 35 34 35 36 35 36 36 36 36 37 37 36 37 38 39 39 41 42 42
29 30 30 30 30 30 33 34 36 36 36 38 37 38 37 37 37 37 39 40 40 39 39 40 41 41 41 41 40 40 42 43 44
28 31 32 32 32 32 34 35 36 39 40 43 43 43 42 41 41 42 43 43 44 44 44 44 45 45 45 45 44 42 42 42 43
26 28 29 32 34 35 38 40 41 41 43 48 48 49 47 47 47 47 46 46 46 48 48 48 48 48 49 48 46 44 44 44 44
28 30 32 34 35 36 38 41 43 44 42 47 51 55 53 50 49 47 45 44 42 44 46 49 49 50 50 49 47 46 46 46 47
30 32 34 36 38 39 40 42 44 46 44 44 48 53 56 54 54 49 47 48 48 44 43 43 45 48 50 51 51 49 46 45 46
31 33 35 37 39 41 42 43 45 47 50 49 48 50 52 51 58 55 51 49 49 47 47 46 44 43 45 47 49 49 47 48 48
32 34 36 38 40 42 45 45 46 48 51 52 53 52 52 52 55 64 60 57 56 56 52 52 48 46 48 48 48 47 46 46 47

GFSFLT1_700_spd_015.txt.gz
Wind_Speed
6 6 8 7 7 7 8 9 10 10 10 9 9 9 9 11 12 12 12 12 12 13 12 11 9 8 9 9 10 10 10 9 8
7 8 9 9 9 9 9 10 11 12 11 12 11 10 10 12 13 15 14 14 14 14 14 13 11 11 10 10 10 10 9 9 9
9 10 11 11 10 10 10 11 11 13 13 13 13 13 12 12 14 16 17 17 16 16 16 15 15 15 13 12 12 12 11 9 9
8 10 11 10 10 10 11 12 13 13 14 15 16 15 15 15 16 17 18 19 18 17 17 18 18 18 17 16 15 15 14 12 10
6 9 9 9 10 10 12 13 14 14 16 17 17 17 18 17 18 19 20 21 20 20 20 20 20 21 20 19 19 18 17 16 14
8 10 10 11 12 13 14 16 16 16 17 18 18 19 20 20 20 21 22 23 23 23 23 23 23 23 23 23 23 22 21 20 19
10 10 12 13 14 15 15 16 17 17 18 19 19 20 20 21 21 21 23 24 25 25 25 26 26 26 26 26 26 25 25 24 24
9 9 11 11 12 13 14 15 16 16 17 19 19 21 22 23 23 23 24 25 26 26 27 28 29 29 30 30 30 29 29 28 28
9 10 12 12 13 14 14 14 15 15 17 18 19 21 23 24 25 26 27 28 28 28 28 30 31 31 32 33 32 33 33 33 32
11 13 14 15 17 18 19 20 21 22 23 23 24 25 27 28 29 29 29 30 31 32 32 33 34 34 35 35 35 35 36 37 37
18 19 20 21 24 25 26 27 28 29 31 30 31 32 33 34 35 35 34 33 33 35 36 36 37 37 37 38 38 38 39 39 39
25 26 27 28 30 31 32 32 33 34 36 35 35 36 36 37 38 39 39 37 36 37 39 40 41 41 41 41 41 41 41 41 41
26 27 29 31 32 34 35 35 35 35 37 38 37 37 37 37 38 39 38 39 40 40 41 42 43 45 45 45 44 43 43 43 44
25 27 29 31 32 34 36 36 38 38 38 40 39 40 40 40 39 40 41 43 44 44 44 45 46 48 49 49 48 48 47 46 46
25 26 27 28 28 30 32 34 36 38 39 41 41 41 41 41 40 40 42 44 46 48 50 50 51 50 51 52 51 50 50 50 49
24 26 27 28 29 31 33 35 37 37 40 45 46 46 45 45 45 45 45 45 45 45 44 44 47 49 50 52 53 53 52 51 51
24 25 27 29 30 32 35 39 41 41 42 47 50 54 52 50 50 49 48 48 48 47 47 44 45 45 46 48 47 49 52 53 53
24 27 29 32 35 37 39 41 44 46 44 45 49 55 57 58 55 54 54 52 51 50 50 49 49 46 45 44 44 42 44 48 51
26 29 32 35 38 40 42 43 45 48 50 48 45 47 53 59 68 61 60 57 56 54 53 53 54 54 53 52 48 44 44 44 46
30 33 36 38 41 43 45 46 46 48 51 52 55 55 54 54 58 68 65 62 60 58 57 56 54 55 58 57 55 54 53 51 46

GFSFLT1_700_spd_018.txt.gz
Wind_Speed
7 8 9 11 11 11 14 15 14 14 15 15 14 14 13 15 15 15 15 15 15 16 17 16 16 15 13 12 11 10 10 10 10
8 9 10 12 13 14 15 15 15 15 16 16 16 15 15 17 17 17 17 17 17 18 19 19 19 19 18 16 14 12 11 11 11
9 10 12 13 14 16 16 17 16 16 17 17 18 18 17 18 19 19 19 20 20 21 21 22 23 22 21 19 18 16 14 14 14
9 11 12 12 13 15 16 17 16 17 18 18 19 20 20 20 22 21 22 23 23 23 24 24 25 25 24 23 22 21 19 18 17
9 9 9 10 12 13 15 16 16 17 18 19 19 21 22 23 23 23 23 25 25 26 26 26 27 27 26 26 26 25 24 23 22
10 11 12 13 14 15 17 18 18 18 19 20 20 21 22 24 24 24 24 26 27 28 28 29 29 29 29 29 29 29 28 28 27
12 13 14 15 16 17 18 19 20 20 20 21 22 23 24 25 26 26 25 27 28 29 30 31 32 32 32 32 32 32 32 32 31
13 14 14 15 15 17 17 18 19 18 20 20 22 24 25 26 28 29 30 30 31 31 31 32 32 33 33 34 34 35 35 35 35
13 15 15 17 18 20 22 23 23 24 25 26 26 27 28 29 30 31 31 32 34 35 35 35 35 35 35 36 36 37 37 38 38
19 19 20 22 23 25 27 27 28 29 30 31 32 34 35 36 37 37 36 36 37 38 37 38 38 39 39 40 39 39 40 40 41
24 24 26 27 28 30 32 33 34 35 36 37 37 38 39 39 39 40 40 39 38 40 42 41 40 40 41 42 43 43 44 44 44
25 26 28 30 32 34 36 37 38 38 39 38 37 37 37 36 38 39 40 40 40 39 40 43 44 45 45 45 46 46 46 46 46
24 25 27 30 32 33 35 36 37 37 39 39 38 39 40 39 39 40 41 42 42 43 43 44 46 48 48 48 49 50 49 49 49
24 25 27 28 30 31 31 32 33 34 35 38 38 39 40 40 40 40 40 42 42 44 46 47 49 50 52 53 53 53 53 53 53
26 27 28 28 29 31 31 32 33 36 39 41 42 42 42 43 43 44 45 45 44 45 46 46 47 48 50 52 55 56 56 55 54
25 26 27 27 29 31 32 34 36 37 41 46 48 47 48 47 49 49 48 48 48 48 48 48 47 48 48 49 48 50 52 54 56
23 25 26 28 30 32 36 39 41 43 44 49 52 55 53 50 52 52 52 52 51 52 54 53 53 52 51 48 49 47 48 45 49
25 27 30 33 35 38 41 44 46 49 47 47 50 56 58 60 57 56 57 56 56 56 56 55 54 56 56 56 55 53 50 49 51
28 31 34 37 40 42 44 45 47 49 50 49 47 48 53 58 66 60 59 58 58 58 58 57 57 56 56 57 58 56 54 54 55
32 35 37 40 42 43 44 43 43 44 45 47 48 48 48 49 53 64 60 58 56 57 57 56 53 51 52 54 53 55 53 50 54

GFSFLT1_700_spd_021.txt.gz
Wind_Speed
10 10 11 11 12 13 14 16 17 18 19 20 20 17 19 20 19 19 18 19 20 19 19 19 19 20 21 19 17 15 15 15 15
11 12 13 13 13 15 16 17 19 20 21 21 22 19 19 20 20 20 20 21 21 20 21 21 22 22 22 22 22 19 18 17 17
13 14 14 15 16 17 18 18 19 20 21 21 22 21 20 20 21 21 22 22 23 23 23 23 24 24 24 25 25 24 22 21 20
11 12 13 14 16 16 17 18 17 18 19 21 22 22 22 22 22 23 23 23 24 25 25 25 26 26 27 27 28 27 27 26 24
13 13 13 13 15 16 17 16 18 19 21 23 23 24 24 24 24 25 25 25 26 27 27 27 28 29 29 30 30 30 30 29 28
16 16 16 16 17 18 19 20 21 22 23 23 25 26 26 27 26 27 27 27 27 28 29 30 31 31 31 32 32 32 32 32 32
18 18 19 19 19 19 20 20 20 21 22 23 23 23 25 26 26 27 27 29 30 30 31 32 33 33 33 34 35 35 35 35 35
18 19 19 20 21 21 22 21 22 23 24 24 25 27 28 29 30 30 30 30 32 32 32 33 34 35 35 36 37 37 38 37 37
21 21 22 22 24 24 25 25 26 27 28 29 30 30 31 33 34 34 34 33 32 35 37 37 37 36 37 38 38 39 39 40 39
23 24 25 26 27 28 28 29 31 32 33 34 35 36 36 37 37 36 37 37 35 35 37 39 39 39 39 39 39 40 41 42 42
24 25 27 28 29 30 31 32 34 35 36 36 37 37 37 37 38 39 38 38 37 36 37 40 41 42 41 42 43 43 43 44 44
24 25 27 29 30 30 32 32 34 34 35 35 35 36 36 36 38 39 40 41 41 41 40 41 43 43 44 45 46 47 47 47 47
24 25 27 29 30 32 32 33 34 35 36 38 37 37 37 38 39 40 41 42 42 43 44 43 43 44 47 48 49 50 51 51 51
26 28 30 32 33 34 34 35 35 36 37 40 40 40 40 41 42 42 43 43 45 46 45 45 46 46 47 47 49 51 52 53 54
28 31 32 33 33 34 34 36 36 38 40 43 44 45 45 45 45 45 46 44 44 46 47 48 49 48 49 48 49 49 50 51 52
28 30 30 31 32 34 36 38 40 42 44 48 49 48 48 46 46 49 46 48 48 50 50 48 48 44 39 48 48 49 47 48 51
26 28 29 31 33 36 39 42 44 45 45 49 51 52 49 47 45 46 47 47 49 48 48 49 49 50 52 53 54 55 53 54 54
27 29 32 35 38 40 42 44 45 46 44 43 45 49 52 53 50 49 49 49 49 51 51 51 51 51 51 50 50 50 54 56 55
30 34 36 38 40 41 41 43 42 42 42 41 40 41 46 51 60 55 52 51 51 51 52 53 53 54 54 53 52 52 53 54 56
34 36 36 37 39 40 41 39 38 39 41 42 44 45 46 46 51 61 59 58 57 56 57 57 56 56 56 55 55 53 53 56 57

GFSFLT1_700_spd_024.txt.gz
Wind_Speed
10 11 12 12 13 14 14 15 16 17 19 19 19 20 19 20 22 21 20 20 20 18 20 19 20 21 21 20 21 20 19 18 18
12 13 14 14 15 16 16 17 18 18 20 19 20 20 20 20 22 22 22 20 20 21 20 21 22 23 22 23 23 23 22 21 20
12 13 15 16 16 17 18 19 19 20 20 20 20 20 21 20 22 23 23 23 23 22 22 23 24 24 24 25 25 25 25 24 24
14 14 15 16 16 17 17 17 18 18 19 20 20 20 22 21 22 23 23 23 23 24 24 25 26 26 26 27 27 27 27 27 27
16 15 16 17 18 18 19 20 20 20 21 21 21 20 21 21 21 21 21 22 22 22 23 25 26 27 28 29 30 29 29 29 29
16 16 16 17 18 18 19 19 19 18 19 19 20 21 21 21 21 20 20 20 22 22 23 25 26 26 27 29 30 31 32 32 32
17 16 16 16 16 17 17 18 19 19 19 20 21 21 22 22 22 22 23 23 24 27 27 27 27 28 29 30 31 31 32 33 33
18 17 17 18 18 19 20 20 21 22 23 23 25 27 27 29 29 29 28 29 28 28 30 32 32 32 32 32 32 33 34 34 35
20 20 21 21 21 22 23 25 26 28 28 29 29 29 30 32 32 31 31 31 31 31 30 33 35 36 34 34 35 35 36 36 36
20 21 22 23 25 25 26 28 29 30 30 31 31 31 32 33 33 34 34 33 33 34 34 34 35 37 37 38 38 38 38 39 39
21 22 23 25 26 27 28 30 32 32 33 33 33 33 34 34 33 34 35 35 37 36 36 36 36 37 39 41 41 40 41 41 42
21 23 24 26 27 29 31 33 34 35 35 35 35 35 34 35 35 37 37 39 39 39 39 39 40 40 40 40 41 41 42 44 45
24 26 27 29 30 33 34 34 35 36 36 37 37 37 36 36 38 40 41 42 42 42 42 40 41 40 41 42 44 45 44 44 46
27 29 30 32 33 34 35 35 36 37 38 40 41 42 43 43 43 43 44 42 40 40 39 42 43 44 45 41 39 43 45 47 47
28 29 29 31 33 33 34 36 37 40 43 45 46 45 44 43 44 43 41 41 39 40 42 42 43 45 46 46 41 44 40 43 45
27 28 28 30 32 35 37 40 42 42 45 46 45 43 40 39 38 39 40 40 41 40 41 43 43 42 42 42 43 45 44 50 53
25 27 29 31 34 37 40 42 42 42 43 46 46 45 41 40 39 39 40 40 41 42 43 44 45 45 45 45 45 45 47 51 54
25 28 31 34 37 37 38 39 41 40 37 38 43 47 50 52 49 46 45 45 45 45 45 46 47 47 48 49 49 48 50 51 52
29 32 35 35 36 37 38 38 38 39 39 37 36 39 45 50 59 54 50 48 49 49 49 50 51 52 52 52 54 55 56 57 57
32 34 34 35 36 36 36 36 36 37 39 40 41 40 41 43 50 61 58 55 54 54 54 53 53 55 56 56 56 59 59 58 59

GFSFLT1_700_spd_027.txt.gz
Wind_Speed
9 10 10 11 12 13 14 14 15 16 17 18 19 19 19 18 19 19 18 19 22 20 17 19 19 19 19 19 20 20 20 20 19
9 10 11 13 13 14 15 15 17 17 18 19 19 19 18 18 18 17 18 18 20 21 19 19 20 21 21 20 20 21 22 22 22
12 11 11 11 12 13 13 13 14 15 15 15 16 16 16 16 16 17 16 17 18 19 18 19 20 21 21 22 22 23 23 23 24
14 13 12 12 12 12 12 13 14 14 15 15 15 15 15 15 15 15 16 16 17 18 18 18 19 20 21 22 23 24 24 25 25
15 14 13 12 12 12 12 12 12 12 12 13 13 13 14 14 14 14 14 15 18 18 17 18 19 20 21 22 23 24 25 26 27
13 13 13 12 11 11 11 12 12 12 14 15 15 15 16 17 17 16 16 18 20 20 21 21 22 23 23 23 24 25 25 26 27
11 11 11 11 12 13 14 15 16 17 18 20 21 22 22 22 22 22 22 22 22 22 23 25 26 26 26 27 27 27 28 28 29
11 13 15 16 16 17 18 19 20 21 22 23 24 25 25 25 25 24 24 25 26 25 26 26 26 28 30 30 31 30 30 31 31
13 14 16 17 18 19 20 21 22 24 24 25 25 26 25 25 26 26 26 25 26 26 27 28 29 29 30 32 32 32 32 33 34
16 17 19 20 22 23 23 24 25 26 27 27 28 28 27 27 27 27 28 29 29 29 30 30 30 30 30 31 32 33 34 35 35
17 19 20 22 24 25 26 28 30 31 31 30 30 29 29 29 30 31 32 33 33 34 35 35 35 34 34 33 34 34 34 36 36
19 20 21 23 26 27 28 30 31 31 32 32 32 33 32 33 34 36 38 38 38 38 38 38 37 36 33 30 31 36 36 37 39
21 23 24 26 29 30 30 30 31 32 34 35 36 37 38 40 41 40 39 39 39 38 38 39 38 38 36 38 38 41 38 37 39
21 24 26 27 29 29 30 32 34 36 37 38 39 39 39 39 39 38 36 35 35 35 35 36 37 37 39 40 40 41 40 39 42
22 23 25 27 28 30 32 34 36 40 42 41 39 38 37 38 36 35 35 35 36 36 37 38 38 38 39 40 41 43 44 43 44
22 23 25 28 30 33 35 37 37 37 39 39 38 35 33 35 34 36 36 36 36 36 37 38 39 39 40 41 43 44 44 45 47
21 23 26 29 32 35 35 35 36 36 40 41 41 41 36 37 35 34 34 35 36 37 37 38 39 41 43 44 43 44 45 48 50
22 25 28 32 34 34 35 36 36 35 35 38 41 44 44 44 40 40 40 41 42 42 42 42 42 43 45 45 46 47 48 51 51
25 28 30 32 32 33 34 35 36 36 35 34 36 39 44 49 56 49 44 43 45 45 46 46 46 47 48 48 49 50 53 53 55
27 30 32 33 33 34 35 35 35 37 37 38 37 38 40 43 51 59 54 50 48 48 49 49 49 50 50 52 53 54 55 57 58

GFSFLT1_700_spd_030.txt.gz
Wind_Speed
9 9 9 10 10 11 11 11 12 12 12 13 13 14 14 14 15 15 15 15 16 15 14 14 16 19 18 16 17 17 17 16 16
10 9 8 9 10 10 11 10 11 11 11 11 11 12 12 12 13 13 14 14 14 16 15 15 15 19 19 17 18 18 19 19 18
10 9 10 9 9 9 9 8 9 10 10 11 11 12 13 14 14 15 15 15 15 16 15 16 16 18 19 18 20 20 20 20 20
11 10 9 9 9 9 9 9 9 9 9 10 10 11 12 13 13 14 15 15 15 14 15 17 17 18 18 19 20 21 22 23 23
10 9 8 8 8 8 8 8 9 10 11 12 12 13 15 15 16 17 18 19 19 18 19 19 19 20 20 21 21 21 21 23 24
10 8 8 8 8 9 10 11 12 12 14 15 17 17 18 19 20 20 21 21 21 21 21 22 22 22 23 24 24 24 24 25 24
11 10 10 11 12 13 14 15 17 18 19 20 21 22 22 22 22 22 22 23 23 23 23 22 23 24 24 25 25 26 26 27 26
10 11 12 13 14 16 17 18 19 20 20 21 22 23 23 22 22 22 22 21 21 21 21 22 23 23 25 26 27 25 26 27 28
12 12 14 15 15 16 17 18 19 20 21 21 21 22 22 22 23 23 24 25 25 25 25 24 24 26 26 27 26 26 28 29 30
15 15 16 16 17 17 19 20 22 23 23 23 23 22 23 24 26 27 28 29 30 31 31 31 30 30 31 30 28 28 32 33 33
15 17 17 18 19 20 22 24 25 26 26 25 25 25 25 27 29 31 32 33 34 35 35 36 35 35 35 35 33 33 34 38 38
17 18 19 20 21 23 24 25 26 27 28 28 28 30 31 33 33 33 33 33 34 34 35 35 35 35 36 36 37 36 36 36 37
18 19 21 22 22 24 24 25 28 30 31 32 33 33 34 34 34 34 33 33 32 32 33 33 34 35 36 37 38 39 41 44 46
19 20 21 22 24 25 27 30 32 33 34 35 33 32 33 33 33 31 31 33 33 34 35 36 37 37 39 40 40 41 42 43 44
19 21 22 23 25 28 30 33 35 36 34 33 33 33 33 32 32 31 32 34 34 35 35 36 37 38 39 41 41 42 43 44 45
19 21 22 25 28 30 32 33 33 35 35 35 33 32 33 33 33 33 33 33 35 36 37 38 39 39 39 41 42 43 45 47 49
19 22 24 27 30 32 33 32 33 34 36 36 38 38 34 36 35 34 34 35 36 37 39 39 40 42 43 44 45 45 46 48 49
20 23 26 29 31 32 32 32 32 33 36 39 40 43 43 42 38 38 37 40 41 41 42 43 43 46 47 48 49 49 50 51 52
23 25 27 30 31 31 32 33 34 35 36 37 39 40 44 48 53 44 42 44 45 46 47 48 49 51 53 53 53 52 52 52 53
24 27 29 30 31 32 34 35 36 37 37 38 38 39 42 46 53 59 54 48 47 50 52 53 54 54 55 56 56 56 56 55 56

GFSFLT1_700_spd_033.txt.gz
Wind_Speed
7 6 6 6 7 8 9 10 10 11 11 12 12 13 14 14 14 15 14 15 15 15 15 16 17 16 15 16 15 14 17 16 15
6 6 6 6 6 6 7 8 8 9 9 10 11 11 12 13 14 15 15 15 16 17 16 17 17 18 18 18 18 17 19 19 18
8 7 7 7 7 7 8 9 10 10 10 11 11 12 12 14 14 15 15 16 16 17 18 17 18 18 18 19 20 20 21 21 21
9 8 8 8 8 8 9 9 10 11 11 12 13 14 14 16 17 18 18 19 19 19 19 19 19 19 20 21 21 22 22 23 22
9 7 6 6 6 6 7 8 9 10 11 12 13 15 16 17 19 20 21 21 22 22 21 21 21 22 22 23 24 23 23 23 24
8 7 6 7 8 9 10 10 11 13 13 14 15 16 17 18 20 21 24 24 25 24 24 25 25 25 24 24 23 23 23 23 24
11 10 9 10 11 11 12 12 13 14 15 16 17 18 19 19 20 21 22 22 22 23 23 22 24 26 25 24 25 24 24 24 25
12 12 11 13 13 14 15 15 15 16 17 18 20 21 22 21 21 21 21 20 20 20 21 22 24 26 26 25 23 25 25 26 26
14 14 14 14 14 15 16 17 18 19 20 21 20 20 21 21 22 22 23 23 23 24 24 25 26 26 27 28 26 27 28 28 28
15 14 15 15 16 16 17 19 20 22 22 21 21 22 23 24 25 26 27 29 30 30 31 31 31 31 31 33 34 34 32 32 34
15 16 17 17 18 18 20 22 22 23 22 22 23 25 26 28 29 30 30 32 32 33 33 33 34 33 33 34 35 36 38 40 40
15 16 17 18 20 21 22 23 23 24 24 25 27 29 31 31 30 30 30 30 31 32 32 32 33 33 34 34 35 37 38 40 41
16 16 18 19 22 22 23 24 25 26 28 29 31 31 30 30 31 31 31 31 31 31 32 33 34 35 37 38 38 39 40 41 43
17 17 19 21 22 23 25 27 29 30 31 31 30 31 30 30 31 31 32 32 33 34 36 36 37 37 38 39 40 41 43 43 44
18 19 20 23 24 26 29 31 33 33 32 30 30 31 31 31 32 32 33 33 35 35 36 37 38 40 41 42 43 45 45 45 46
18 20 22 24 26 28 30 32 33 33 32 32 30 32 32 32 32 33 32 34 35 36 39 40 41 42 43 45 46 47 48 49 51
19 20 22 25 28 30 31 32 33 33 33 34 35 35 33 34 34 34 33 35 36 38 41 43 44 45 45 46 48 49 51 52 54
19 21 24 27 29 30 31 31 32 33 35 37 38 40 42 43 38 36 35 38 39 41 43 44 46 48 50 52 53 55 56 58 59
20 24 26 28 30 31 31 32 33 35 37 38 38 40 43 46 49 43 40 41 43 44 45 47 50 52 54 56 58 59 60 61 61
22 25 27 30 31 32 32 34 36 37 37 38 38 39 41 43 49 53 49 44 44 48 51 54 56 57 59 61 62 64 64 64 63

GFSFLT1_700_spd_036.txt.gz
Wind_Speed
4 3 3 3 3 4 5 7 8 8 9 11 12 13 14 15 15 15 14 15 15 15 16 16 17 16 16 16 17 17 17 16 16
4 4 3 3 4 4 5 6 7 7 8 9 10 12 13 14 15 15 16 17 17 17 17 17 17 18 18 18 17 18 18 18 19
6 5 4 4 5 5 6 7 8 8 9 9 10 12 12 13 15 16 17 16 17 18 18 19 19 19 19 19 18 18 19 19 20
6 5 4 4 4 5 6 7 7 7 8 9 10 11 12 14 15 16 17 17 17 18 18 19 20 20 20 21 20 20 20 20 20
7 6 5 5 4 5 5 6 7 8 9 10 11 13 14 15 17 18 19 19 19 19 20 21 21 22 22 21 21 22 22 22 22
8 7 7 7 7 7 8 9 10 10 11 12 13 14 15 16 18 20 21 20 20 20 17 18 18 20 21 24 23 24 23 23 23
10 10 9 10 10 10 11 11 12 12 13 14 15 17 18 20 21 22 22 22 22 21 19 21 22 23 23 23 20 22 24 25 24
13 12 12 12 13 13 13 13 14 14 15 16 19 20 21 21 21 22 22 22 22 22 22 22 23 25 25 26 25 21 24 26 25
14 14 14 14 14 14 15 16 17 18 19 19 19 19 20 20 21 22 23 24 24 25 26 27 28 29 30 31 31 31 32 30 29
15 15 15 16 15 15 16 17 19 20 20 20 20 20 21 23 24 25 26 27 27 28 28 29 29 30 31 32 33 34 36 37 36
17 17 17 16 17 17 18 20 21 21 22 22 23 24 25 26 27 27 26 26 27 29 30 30 31 31 31 32 32 33 35 37 37
17 16 16 17 18 19 20 21 21 22 24 25 26 27 28 27 27 27 28 28 29 29 30 31 32 32 33 34 34 35 36 37 38
16 16 16 17 18 19 20 22 23 24 25 26 28 28 27 28 28 28 29 29 30 31 31 32 33 34 35 35 36 37 38 39 39
16 15 15 17 18 21 23 24 26 27 27 28 28 28 28 28 29 29 30 31 31 32 33 34 35 35 36 36 37 39 40 41 42
15 15 16 18 21 23 26 28 30 29 28 28 28 28 28 29 30 31 32 32 32 33 33 34 35 37 39 40 41 42 42 43 44
15 15 17 19 23 25 28 30 30 30 30 28 28 29 31 31 32 31 32 32 33 34 36 37 39 39 41 42 43 44 45 46 48
14 16 18 21 25 27 29 30 31 31 30 30 31 32 32 32 31 31 33 33 34 35 37 39 40 41 42 44 46 48 49 51 53
14 17 20 24 26 28 30 31 31 31 33 34 36 38 40 41 36 32 31 34 35 36 38 40 42 44 46 48 50 53 54 56 58
15 18 22 25 28 30 31 32 32 33 35 37 37 39 42 44 47 41 36 38 39 39 40 43 46 49 52 54 57 58 59 60 61
17 20 23 27 29 32 34 34 34 36 37 38 38 38 39 41 46 49 44 41 40 43 47 50 53 55 58 61 62 64 65 66 66

GFSFLT1_700_spd_039.txt.gz
Wind_Speed
2 1 1 1 2 3 3 5 5 6 8 9 10 10 11 12 12 12 13 14 13 13 14 14 14 14 15 15 16 18 18 18 17
0 1 2 2 3 4 4 5 5 6 7 8 9 10 11 12 12 13 13 13 13 13 13 13 13 15 15 15 15 17 18 19 19
3 2 3 3 4 5 6 6 6 6 7 8 9 10 10 11 12 13 12 13 13 13 13 13 13 14 15 16 16 16 17 18 19
4 4 3 3 3 4 4 4 4 4 6 7 8 9 11 12 14 15 14 15 15 15 16 15 15 16 16 17 18 18 18 19 19
5 4 4 4 4 4 5 5 6 7 8 9 11 12 13 14 16 16 17 17 17 17 17 15 14 16 18 18 20 21 22 21 21
6 6 6 7 7 7 7 8 9 10 11 12 13 14 14 15 17 18 18 19 18 17 18 18 17 17 18 20 20 22 23 23 22
9 8 8 9 9 9 9 10 11 12 13 14 15 16 18 19 19 19 19 19 19 18 18 19 20 21 22 24 27 26 25 21 22
12 11 11 11 11 11 11 12 13 14 15 17 18 19 20 21 20 20 20 21 21 21 22 22 23 24 25 26 27 27 28 28 27
14 14 14 14 13 13 14 15 15 16 17 18 18 19 20 20 21 21 22 23 24 25 26 27 27 27 29 30 31 31 33 34 33
16 17 17 17 15 14 15 16 16 18 18 18 19 20 21 23 24 25 25 25 25 25 26 26 27 27 28 29 30 30 32 34 35
17 17 17 16 16 16 15 16 18 19 20 21 22 23 24 24 25 25 24 25 25 26 26 26 27 27 28 28 28 29 30 31 32
17 16 15 15 15 16 16 17 18 20 21 23 24 25 25 25 24 25 25 26 26 26 27 28 29 30 30 31 32 33 33 33 32
16 15 14 14 14 16 16 17 19 21 23 24 25 25 24 24 24 25 26 27 28 30 31 31 32 32 33 33 33 34 35 36 35
16 15 13 13 15 16 17 19 21 22 24 25 26 25 25 25 25 27 28 29 30 31 32 33 34 34 34 35 35 36 37 38 38
16 14 13 14 15 17 20 22 24 24 24 25 25 25 26 26 27 29 30 31 31 33 33 34 35 36 37 37 38 38 39 40 40
16 14 14 14 16 19 22 25 26 27 27 26 26 27 28 28 28 29 31 31 33 32 35 36 37 38 39 40 40 41 41 43 44
17 14 14 14 17 20 24 26 28 29 28 28 28 29 29 28 28 30 32 32 33 35 36 37 38 40 41 41 43 45 47 49 50
15 13 13 16 19 22 25 28 30 31 30 29 31 33 33 35 32 31 32 32 33 34 36 38 39 41 44 46 48 50 52 54 55
14 13 14 17 20 24 27 29 31 32 32 32 32 34 37 39 43 39 37 38 37 38 38 39 42 45 48 51 54 56 58 60 61
14 14 16 19 23 27 30 32 33 34 34 34 35 36 37 39 42 44 39 38 39 41 43 45 49 51 54 58 61 63 65 67 68

GFSFLT1_700_spd_042.txt.gz
Wind_Speed
2 2 3 3 4 5 5 6 7 8 9 10 10 10 11 11 11 11 12 13 13 13 13 13 14 13 13 13 14 16 17 17 17
4 5 5 4 5 5 5 5 6 6 8 9 9 9 10 10 11 11 11 12 12 12 12 12 13 13 13 13 13 15 16 17 18
5 5 5 5 5 6 6 6 7 7 8 9 8 9 9 10 10 10 11 12 12 13 13 13 13 13 13 14 15 15 17 16 17
5 4 3 3 3 4 4 4 5 5 7 8 8 10 11 12 13 14 14 14 15 15 16 16 15 14 15 16 16 18 18 19 19
7 5 4 4 4 4 5 5 6 7 9 10 11 12 13 15 16 16 17 17 17 18 18 17 16 15 16 17 17 19 20 19 21
8 8 7 6 6 7 7 8 9 10 11 11 12 13 14 16 17 19 20 20 19 18 19 18 19 19 20 21 23 23 20 21 22
10 9 9 9 9 9 10 11 11 12 13 13 14 15 17 18 19 19 19 20 20 21 21 21 21 21 22 24 26 28 29 29 28
11 11 11 12 11 12 12 13 13 13 14 15 17 18 18 18 19 20 20 22 23 24 24 25 25 25 26 27 28 29 30 30 31
14 14 14 14 14 13 14 14 14 14 15 17 17 17 18 19 20 21 23 24 26 27 27 27 26 26 27 29 29 30 32 33 33
17 17 17 17 16 15 15 15 15 15 16 17 17 19 20 22 23 25 24 25 25 25 25 26 26 26 26 27 27 28 29 30 31
18 18 17 17 16 15 15 15 15 16 18 19 20 22 23 23 24 25 24 24 24 25 25 26 26 27 28 29 29 29 29 30 32
19 17 16 15 14 15 14 14 15 18 20 22 23 24 24 24 23 24 24 24 25 26 27 28 28 30 31 31 32 33 33 33 33
19 17 15 13 13 13 13 14 16 20 22 24 24 24 24 23 23 24 24 25 27 28 30 30 31 32 33 34 35 36 35 36 37
20 17 14 12 12 12 13 15 18 21 23 24 24 24 24 24 24 25 26 27 29 30 31 32 34 35 36 36 37 38 38 38 39
17 20 15 13 12 12 13 17 19 21 23 25 25 25 25 25 26 27 27 29 30 33 34 35 36 37 38 39 39 39 40 40 41
19 22 17 15 13 13 15 18 20 22 24 26 26 25 26 26 27 27 30 31 32 34 36 37 37 38 38 39 40 40 41 42 43
20 20 16 15 14 14 17 19 22 24 26 27 27 27 28 28 28 29 32 33 35 35 36 37 38 40 41 41 42 43 45 47 49
22 20 16 15 14 16 18 21 23 26 27 28 29 31 32 32 31 32 33 33 34 34 35 36 38 40 42 44 46 48 50 53 55
21 17 16 15 15 17 20 22 25 27 29 31 31 31 33 35 37 36 38 37 36 36 35 36 38 41 44 47 50 53 56 59 61
22 18 17 16 17 19 22 25 28 30 32 33 33 34 35 37 40 40 38 39 40 42 42 42 44 47 51 54 57 60 64 66 68

GFSFLT1_700_spd_045.txt.gz
Wind_Speed
6 6 5 5 5 6 6 6 7 7 7 9 9 9 10 10 10 11 12 12 12 11 12 11 12 12 13 13 14 14 14 15 15
7 7 7 7 6 6 5 5 5 6 6 7 8 9 9 10 11 12 12 12 12 12 13 12 12 12 13 13 13 14 14 15 16
7 8 7 7 7 6 6 6 6 6 6 7 7 8 9 10 10 12 13 13 14 15 15 15 15 14 13 13 14 14 15 15 16
7 7 7 6 5 5 5 5 5 5 6 7 8 10 11 12 13 14 14 14 15 16 17 18 16 16 15 14 15 16 16 16 16
7 7 7 7 7 6 6 7 7 8 9 10 10 11 13 14 14 16 15 17 18 18 18 19 19 18 17 18 19 18 16 16 17
8 8 8 8 8 8 9 9 9 9 10 11 12 13 15 16 17 19 19 19 19 19 19 19 19 19 20 21 21 23 24 23 21
11 10 10 10 10 10 11 11 10 11 12 11 13 15 17 18 19 18 19 19 20 20 21 21 21 21 22 22 23 24 26 28 29
12 12 13 13 12 12 12 12 12 12 14 15 15 16 17 19 20 19 21 22 23 25 25 24 24 25 25 25 25 26 27 29 30
14 15 15 16 15 15 14 13 13 14 15 16 16 17 18 20 22 23 23 24 25 26 26 25 24 24 25 25 25 26 27 27 29
17 18 18 18 17 16 15 15 15 15 15 16 17 18 20 22 24 27 24 25 24 24 24 24 24 24 25 25 26 26 27 27 29
19 20 19 19 18 17 15 15 15 15 16 17 18 20 22 24 24 26 23 23 23 22 23 23 24 25 26 28 28 29 29 29 31
20 21 20 19 18 17 15 15 14 15 16 18 20 22 23 23 23 23 25 22 23 23 24 25 26 27 29 30 31 32 32 33 33
23 25 20 18 17 16 15 14 14 16 18 20 21 22 22 23 23 23 23 24 24 24 26 27 28 30 32 33 34 35 35 35 35
23 23 21 17 15 15 14 15 15 16 19 21 22 23 23 23 24 24 25 25 26 27 28 30 31 33 34 36 36 37 38 38 38
24 21 20 17 16 14 14 14 15 17 19 21 23 24 25 25 25 25 26 26 29 30 32 33 35 36 36 37 38 39 39 39 39
24 21 21 19 18 15 15 15 16 17 20 22 25 25 26 26 26 27 28 30 31 32 34 36 37 38 39 39 38 38 39 40 41
24 20 21 19 19 16 16 16 16 18 21 23 25 28 29 26 27 28 30 32 34 35 36 38 39 39 40 40 41 41 42 44 45
26 22 21 22 20 18 17 17 18 20 21 25 28 30 31 31 31 31 32 34 35 37 37 37 38 39 41 41 43 44 45 47 50
29 23 23 20 20 19 18 18 19 22 25 27 29 32 33 34 34 35 37 39 40 40 38 36 37 39 41 43 45 47 49 52 55
29 24 25 23 21 20 19 20 22 25 28 30 33 35 35 36 38 38 38 41 40 42 43 43 44 45 48 49 52 55 57 59 61

GFSFLT1_700_spd_048.txt.gz
Wind_Speed
5 5 5 6 6 5 5 5 5 5 6 6 7 8 8 8 8 9 9 11 11 12 13 13 13 13 13 12 12 11 11 12 12
7 7 7 6 6 6 5 5 4 4 4 5 6 7 8 9 9 9 8 10 10 11 12 13 13 13 13 12 12 12 12 12 12
8 9 8 7 6 5 5 5 5 5 5 4 4 5 7 8 9 11 9 12 11 13 14 14 14 15 15 14 11 13 13 12 12
8 7 7 7 6 6 5 4 3 3 4 5 6 7 8 10 10 13 11 13 14 15 15 16 16 16 16 15 15 13 12 13 12
7 8 7 7 7 6 6 5 5 6 6 6 8 9 10 12 13 13 14 16 17 17 17 17 18 18 17 17 17 18 19 19 17
7 7 8 8 8 8 8 7 8 8 8 8 10 11 12 14 15 16 17 17 18 18 18 18 18 19 19 19 19 19 21 23 23
8 8 9 9 10 10 10 10 10 11 10 9 11 13 14 17 16 16 18 19 20 20 20 20 20 21 22 22 21 22 23 24 25
10 10 11 11 13 13 12 12 11 13 14 12 12 14 16 18 18 17 20 22 23 23 22 22 22 22 22 21 21 21 22 23 25
12 13 13 14 15 16 14 14 13 13 13 13 14 15 17 18 22 20 21 23 23 23 22 21 21 21 21 21 21 21 22 23 23
14 14 15 16 17 17 17 17 17 15 14 14 14 16 18 20 24 21 21 22 22 22 21 20 20 20 21 21 22 23 23 25 26
15 16 16 17 19 19 18 18 17 16 15 15 15 17 19 20 23 22 20 21 21 20 20 20 21 22 23 23 24 25 26 27 28
17 17 17 16 24 22 19 18 16 16 16 16 16 18 19 20 21 24 21 20 21 21 21 22 23 24 24 26 27 27 29 30 31
20 19 19 22 23 27 20 18 16 16 16 16 16 17 19 20 21 22 22 21 21 22 23 24 24 26 28 29 30 31 32 33 34
22 23 23 20 19 19 20 18 16 16 16 16 17 18 19 20 22 22 23 24 25 25 24 26 27 29 30 32 34 35 36 35 36
25 24 24 21 19 17 16 19 17 16 16 17 18 19 19 21 23 24 25 24 26 27 28 29 30 32 33 34 36 36 37 37 38
26 26 24 22 18 18 18 19 18 17 16 17 18 19 21 23 24 26 27 28 28 29 30 31 33 34 36 38 39 38 37 37 38
26 27 25 23 20 18 21 20 20 18 17 18 19 22 23 24 27 28 30 31 31 32 33 34 35 37 38 39 40 40 40 40 42
26 26 24 26 23 22 27 23 22 19 18 19 22 26 27 29 30 31 32 33 33 34 35 35 36 38 39 39 40 41 42 42 44
27 27 28 29 25 24 23 23 21 20 20 21 24 27 30 33 33 34 36 36 36 37 37 36 37 38 39 40 41 42 44 44 47
28 29 30 30 26 23 23 24 22 22 22 24 27 30 33 36 38 37 36 37 38 40 40 39 41 43 45 45 45 47 48 50 51

GFSFLT1_700_spd_051.txt.gz
Wind_Speed
6 5 5 4 3 3 3 3 3 2 3 4 5 5 5 6 7 8 9 9 9 10 9 9 10 10 11 11 9 9 9 9 10
6 6 5 4 3 3 3 3 3 4 4 5 6 7 7 7 7 5 7 8 9 10 10 11 11 11 12 12 11 9 9 9 9
6 6 6 6 5 4 2 2 2 3 3 3 4 6 6 7 8 7 7 9 10 10 11 12 12 13 13 13 12 8 9 9 10
6 5 5 6 6 5 4 3 1 2 3 4 6 7 8 8 8 8 8 10 11 13 14 14 14 14 14 14 14 13 14 11 10
7 6 5 5 5 5 5 5 5 5 5 6 8 9 10 9 10 10 11 13 13 13 14 15 14 14 15 15 15 15 16 17 18
6 6 6 6 7 7 6 7 7 7 7 10 10 11 11 10 11 13 13 14 14 14 15 15 16 16 16 17 17 17 17 18 19
6 6 6 7 8 8 9 9 9 9 9 11 12 12 13 12 12 14 15 16 17 17 17 18 18 19 18 18 18 19 19 19 20
8 7 7 8 8 9 10 11 12 12 12 12 12 13 14 13 13 14 16 19 20 19 18 19 19 19 18 17 18 17 18 17 19
11 9 9 9 9 11 12 13 15 15 15 15 14 13 15 14 15 16 18 19 20 20 19 18 18 17 17 17 17 18 17 18 19
13 12 12 11 11 11 14 16 16 15 14 14 14 15 17 17 16 17 18 19 19 19 18 18 18 18 18 18 19 19 20 20 21
13 13 14 14 13 15 15 17 20 18 16 14 14 15 17 18 17 18 17 18 19 19 19 19 19 19 20 20 21 21 22 23 24
14 15 16 16 17 19 21 16 19 21 17 15 15 15 17 19 17 18 18 18 19 19 20 20 21 21 22 23 24 25 25 26 27
17 18 18 18 18 19 21 20 17 19 20 17 15 15 16 18 19 18 18 18 19 21 22 22 23 25 26 27 28 28 29 29 30
22 23 22 20 19 20 19 20 20 20 19 17 16 15 15 16 17 18 19 20 20 21 23 24 26 27 28 30 31 31 32 33 33
26 23 22 20 20 20 19 20 20 20 19 17 17 16 15 16 18 20 21 23 24 26 25 26 28 30 31 32 34 34 34 34 35
24 24 23 21 21 22 19 18 18 21 21 18 17 17 16 17 19 21 23 24 25 26 28 29 30 32 33 35 36 36 37 36 35
22 26 23 22 22 23 21 20 23 23 24 20 20 20 18 20 21 23 26 27 28 30 31 31 33 34 36 37 38 38 38 37 38
22 26 23 23 23 24 23 23 24 24 24 25 23 21 22 24 25 26 28 30 32 33 34 35 36 37 37 38 39 39 39 39 40
24 25 24 25 25 27 26 25 23 24 23 24 23 22 24 26 28 29 32 33 35 36 37 37 39 40 40 40 40 40 40 41 43
26 27 27 28 27 28 27 26 25 25 25 25 25 25 27 29 31 32 34 36 38 39 39 40 41 42 43 43 43 44 43 44 45

GFSFLT1_700_spd_054.txt.gz
Wind_Speed
4 4 3 3 2 2 2 2 3 3 4 5 5 5 5 5 6 7 8 9 8 7 7 8 9 9 9 9 8 7 7 7 7
5 5 5 4 3 2 2 2 3 4 5 5 6 6 6 5 5 6 7 7 7 7 8 8 9 10 10 10 9 7 8 8 7
5 5 5 5 4 3 3 2 2 3 4 4 4 5 5 6 6 6 8 8 8 9 10 10 10 11 11 10 9 6 5 5 5
5 5 5 5 5 4 3 2 2 4 5 6 7 7 7 7 8 8 8 9 10 11 12 11 11 11 11 11 11 11 12 13 12
6 5 4 4 4 4 5 5 6 6 7 8 9 9 9 9 9 10 11 11 11 11 12 12 12 12 13 13 13 13 14 14 15
6 5 4 4 4 5 5 6 6 8 9 11 12 11 11 11 11 12 13 12 12 12 13 15 16 15 15 16 16 16 17 17 17
7 6 6 6 6 6 7 7 8 9 11 13 14 13 13 13 13 13 14 14 14 14 15 17 17 18 17 17 17 17 17 17 17
8 8 7 7 6 6 8 9 10 11 12 13 15 14 13 13 13 14 16 17 17 16 17 18 18 18 17 17 16 16 16 16 16
11 10 10 9 8 7 8 9 11 14 15 15 16 14 13 13 14 15 17 18 17 17 17 17 17 17 17 16 17 17 16 17 18
14 14 13 12 11 10 9 10 12 12 15 16 17 16 13 13 14 15 16 18 18 17 17 17 18 17 17 18 18 19 19 19 20
15 15 14 15 14 13 13 15 16 15 15 15 17 18 16 14 15 15 15 17 18 18 18 18 19 19 19 20 21 21 22 22 23
16 16 16 16 15 15 16 16 17 18 18 17 16 17 17 15 15 15 15 16 17 18 18 19 20 21 22 23 24 24 25 26 27
18 16 17 18 18 19 19 17 18 19 18 19 18 18 17 16 15 15 14 15 16 17 19 20 22 24 25 27 27 28 28 29 30
21 20 22 23 21 20 19 18 18 19 19 18 18 19 19 16 15 15 15 16 17 18 20 23 24 26 27 29 30 30 31 32 32
21 21 23 22 20 19 18 18 19 19 18 18 19 19 19 18 15 16 17 18 19 21 22 24 27 29 30 32 32 33 34 35 35
22 20 23 21 18 18 18 18 19 18 18 20 21 20 21 20 19 19 20 21 22 24 26 27 29 31 32 33 34 35 36 37 38
23 21 22 22 20 20 20 20 20 19 21 23 25 24 23 24 25 23 23 23 25 27 29 31 33 35 36 37 37 38 38 39 40
25 22 22 23 23 22 23 22 21 21 23 25 25 26 25 25 25 25 26 27 29 31 33 35 36 37 38 39 39 40 40 40 41
26 24 22 24 25 26 24 26 25 24 23 25 26 26 27 27 28 27 28 31 33 34 37 39 40 41 41 42 42 42 41 41 42
31 26 23 25 26 29 28 27 27 27 24 26 27 28 30 29 29 29 31 33 35 37 40 42 43 44 44 44 44 44 44 44 45

GFSFLT1_700_spd_057.txt.gz
Wind_Speed
4 4 4 3 3 3 2 2 2 3 3 3 4 4 4 5 6 6 7 8 8 8 8 8 9 8 8 8 7 7 6 6 6
5 4 4 4 4 3 3 3 4 4 4 5 5 5 5 5 5 6 7 8 8 9 8 9 10 10 9 9 7 6 8 8 8
6 5 5 5 4 4 4 4 4 4 4 4 4 4 5 5 5 6 8 9 10 10 10 10 11 11 11 10 9 6 4 3 4
7 6 5 4 4 5 5 5 5 6 7 7 8 7 7 7 7 8 9 10 11 12 11 11 11 11 11 11 11 11 12 13 14
7 6 4 4 4 5 5 5 5 5 6 7 7 8 9 9 10 10 10 12 12 12 13 13 13 13 14 14 14 14 14 14 15
6 7 6 4 4 3 3 4 6 7 8 9 9 9 10 10 11 12 12 12 12 13 14 15 16 16 16 17 17 16 17 17 18
7 6 7 6 5 4 5 6 7 8 9 10 11 11 12 13 13 13 13 14 13 13 16 17 17 16 17 17 17 17 17 17 17
10 9 7 8 7 7 7 7 9 10 12 12 12 13 13 13 14 14 14 15 14 14 16 16 16 16 16 16 16 16 16 16 16
13 12 11 10 10 10 9 8 8 11 13 13 12 13 14 14 14 15 16 16 16 15 15 16 17 16 16 16 16 16 16 17 18
16 15 14 13 12 13 12 10 10 12 14 16 15 13 13 14 14 15 16 16 16 16 17 17 17 18 17 18 18 18 18 19 20
18 17 15 15 14 14 14 14 15 14 15 17 18 16 15 15 14 15 17 17 17 17 17 17 18 19 19 20 20 21 22 22 23
17 17 16 16 16 16 15 16 16 17 17 18 18 17 16 16 16 16 16 17 16 16 17 18 19 20 21 22 23 23 24 25 26
17 17 17 18 17 17 18 18 19 19 18 19 18 17 16 16 17 16 16 15 16 16 17 19 20 22 23 24 25 26 26 27 28
20 19 19 21 20 20 20 19 19 19 18 19 19 18 17 17 16 16 16 17 17 17 19 20 22 23 25 26 28 29 29 30 30
22 21 21 21 21 21 20 19 19 17 17 17 17 18 19 19 18 17 18 18 19 23 23 23 25 26 28 29 30 32 32 33 34
23 22 21 21 22 22 22 20 19 18 18 17 18 20 21 21 21 22 24 25 28 24 25 26 28 29 31 32 33 34 35 36 37
27 24 23 24 23 23 23 22 20 20 20 19 21 22 24 24 24 24 24 24 24 25 27 29 31 33 34 36 37 37 38 39 40
29 26 25 25 25 24 24 25 23 22 22 23 23 24 26 25 26 26 26 27 27 28 30 32 34 36 38 39 40 40 40 40 41
33 31 28 27 25 23 26 26 28 27 25 26 24 26 26 27 29 29 30 30 30 31 33 35 37 40 42 43 43 43 43 43 43
35 34 32 30 26 22 24 27 30 31 29 29 28 29 28 28 32 33 33 33 33 34 36 38 41 44 46 46 45 45 46 45 45

GFSFLT1_700_spd_060.txt.gz
Wind_Speed
6 6 6 5 5 4 4 3 2 1 1 1 1 1 2 2 3 4 5 6 7 7 7 8 8 7 8 9 7 6 6 6 6
7 7 6 5 5 4 4 3 3 3 3 3 3 3 3 3 3 4 5 6 7 7 8 9 10 10 10 10 10 7 6 4 4
7 6 5 5 5 5 4 4 4 4 5 4 3 3 3 4 4 5 6 6 8 8 9 10 10 10 10 9 9 8 7 6 4
8 6 5 5 5 5 4 4 4 5 5 4 4 5 4 4 5 5 7 8 9 10 10 11 9 10 11 10 10 10 11 12 12
6 7 6 5 5 5 5 5 6 6 6 6 6 6 7 7 8 8 8 9 10 11 12 12 12 12 12 13 12 13 14 14 14
4 3 5 5 4 4 5 6 6 7 7 8 8 9 9 9 10 10 10 10 10 12 13 13 14 14 14 14 14 14 15 15 16
7 6 4 3 4 3 4 4 5 6 7 8 9 9 10 11 11 12 13 13 11 13 15 14 14 15 15 14 14 14 14 14 15
10 9 9 7 7 7 7 6 6 6 8 10 11 11 12 12 12 12 13 14 13 13 15 15 15 15 15 14 14 14 14 15 15
13 12 12 12 11 10 10 10 8 7 8 10 12 13 13 13 13 13 14 14 14 14 15 16 16 15 15 15 15 15 15 16 17
16 16 15 14 14 14 12 12 12 11 11 12 12 14 15 14 14 14 14 14 14 14 15 15 15 15 15 15 15 16 16 17 18
18 18 17 17 16 16 15 14 15 15 15 15 16 16 16 15 14 15 15 15 15 14 15 16 15 15 16 16 17 17 18 19 20
20 19 18 18 18 17 16 15 15 17 18 19 18 17 17 16 15 16 16 16 15 15 15 16 17 17 17 18 18 18 20 21 22
20 18 18 19 19 18 17 17 18 20 20 19 18 18 17 16 16 16 16 16 15 15 15 15 17 19 20 20 21 22 22 23 23
20 19 20 21 20 19 20 21 20 21 20 19 18 17 16 16 17 18 18 17 17 17 17 19 21 21 22 23 24 25 27 27 27
22 22 22 22 21 20 21 21 21 21 21 19 18 16 15 17 18 19 19 19 20 20 24 28 25 24 24 26 27 28 30 30 31
27 24 24 23 22 22 23 23 23 22 22 21 19 18 18 19 20 21 22 22 24 24 22 24 25 26 27 28 30 31 33 34 35
29 27 26 25 25 26 26 23 24 24 23 22 22 21 22 21 22 23 24 25 26 25 26 27 27 28 29 30 32 34 36 37 37
31 31 29 29 27 28 27 24 25 26 24 23 24 25 25 24 23 24 25 26 27 28 29 30 30 32 32 34 36 37 39 40 39
37 35 33 31 31 30 29 27 26 28 25 25 29 29 28 26 29 26 28 28 30 32 33 33 34 35 36 37 40 41 43 43 42
35 33 33 32 34 32 31 29 26 24 27 30 28 33 32 30 32 30 30 31 32 34 35 36 37 38 40 41 43 45 46 45 44

GFSFLT1_700_spd_063.txt.gz
Wind_Speed
8 8 8 7 6 5 4 3 4 4 2 2 3 3 2 2 2 2 2 3 4 5 6 6 6 6 7 7 6 5 5 5 5
8 8 7 7 6 6 5 5 5 3 2 3 3 2 1 1 1 2 3 4 5 5 6 7 8 8 7 7 6 2 5 5 5
8 6 6 6 6 5 5 5 5 5 4 3 3 2 1 2 3 4 4 5 6 7 8 8 8 8 7 8 7 7 8 7 5
8 7 6 5 4 4 4 5 5 4 4 3 2 2 3 3 4 5 6 7 7 8 9 9 9 9 9 10 10 10 10 10 12
3 5 5 5 4 4 4 4 4 4 4 4 4 4 4 5 5 6 7 8 9 10 11 10 11 12 12 12 12 12 13 13 13
3 2 2 2 3 3 3 4 4 4 4 5 5 6 6 6 7 7 6 7 8 10 11 11 12 12 13 13 13 13 13 13 13
7 6 6 4 4 3 3 3 2 2 3 5 6 7 8 8 7 8 8 8 8 10 10 11 11 12 12 12 12 12 12 12 12
10 10 9 9 9 8 7 7 6 5 4 5 7 9 10 10 10 10 10 10 10 11 11 11 11 12 12 12 12 12 12 12 13
13 13 13 13 13 13 11 10 10 9 8 8 9 10 12 13 13 13 13 12 11 11 11 11 11 11 11 11 12 12 13 13 14
16 16 16 16 16 16 15 14 12 12 12 12 13 13 14 15 15 14 14 14 13 12 12 12 11 10 10 10 11 12 13 14 15
19 19 19 18 18 18 17 15 14 14 15 15 16 18 18 17 16 15 15 14 14 14 13 12 11 10 11 11 12 13 13 14 16
21 22 21 20 20 19 18 17 16 16 16 17 19 19 19 18 17 16 15 15 15 15 14 14 13 12 12 14 14 14 16 17 18
22 22 22 21 20 20 19 18 18 19 19 20 20 19 18 17 17 16 16 16 16 15 15 14 14 14 18 17 17 18 18 19 21
23 23 23 22 21 21 20 20 21 21 21 20 19 19 19 18 17 15 17 18 18 17 17 17 19 22 21 18 19 20 22 23 24
24 24 24 23 22 23 21 22 22 22 23 21 21 20 20 19 17 17 18 19 20 21 21 23 23 21 22 23 23 23 24 26 27
27 25 26 24 24 24 25 25 25 24 24 24 23 21 21 20 20 20 20 21 22 22 24 24 24 24 25 26 26 26 27 28 30
31 31 30 29 27 27 27 26 26 26 26 25 25 24 22 21 21 22 23 23 23 24 26 26 26 28 29 29 29 29 30 31 32
31 32 32 32 32 31 29 29 29 27 27 27 28 27 25 22 23 24 25 25 25 26 27 28 30 32 33 34 34 34 34 35 36
35 35 35 35 34 34 33 31 31 30 29 31 30 29 31 28 29 27 27 29 30 30 32 32 33 35 36 37 38 38 38 39 40
39 38 35 36 40 38 36 34 34 33 32 32 30 31 32 34 32 32 33 28 34 35 34 36 36 37 39 40 41 42 42 43 44

GFSFLT1_700_spd_066.txt.gz
Wind_Speed
6 5 6 5 5 4 4 4 5 4 3 2 2 1 1 1 1 2 2 3 4 5 5 5 7 7 7 6 6 5 5 5 4
5 5 5 6 6 5 5 5 4 3 2 2 2 2 1 1 1 2 2 3 4 6 7 7 8 8 8 7 6 3 2 4 5
7 6 5 5 5 5 5 5 4 3 3 3 2 1 2 2 2 2 3 4 5 6 6 7 7 7 7 8 8 7 8 8 7
6 6 6 5 5 4 4 4 3 2 2 2 1 1 2 2 3 3 4 5 5 6 6 7 8 8 9 10 9 9 10 12 12
2 4 5 4 5 4 4 3 3 2 2 2 1 1 2 3 4 5 5 5 6 7 8 7 8 9 10 10 11 11 12 12 13
4 3 3 2 2 3 3 3 3 2 3 3 4 4 5 5 5 6 7 7 8 9 9 10 9 9 9 10 10 9 10 11 11
8 7 7 6 5 4 4 4 5 5 6 6 7 7 8 8 9 8 8 7 8 9 9 9 10 10 9 9 9 9 9 9 9
11 11 11 10 10 10 9 9 9 9 8 8 8 9 9 10 11 12 11 10 9 9 9 9 10 10 9 9 9 9 9 10 10
14 14 14 14 14 14 14 13 13 12 12 12 12 12 12 12 13 14 14 13 11 11 11 10 10 9 9 8 9 9 10 10 11
18 17 17 17 17 18 17 17 16 15 15 16 15 15 15 17 17 17 16 14 14 13 12 12 11 9 9 9 10 10 11 12 12
21 21 21 21 21 20 20 19 18 18 17 18 18 18 18 19 19 19 17 16 14 13 13 12 11 11 10 10 11 12 12 13 14
24 25 24 24 24 23 23 22 21 20 19 20 20 20 21 21 19 19 19 17 16 14 14 13 13 12 12 11 12 14 14 15 15
26 27 27 27 26 25 24 23 22 21 21 21 21 22 22 20 19 20 20 18 17 16 16 16 16 15 15 17 18 17 16 17 17
28 29 29 29 28 27 26 24 24 24 23 23 23 23 22 21 21 21 20 19 18 19 19 18 19 20 21 22 19 19 20 21 22
32 31 30 30 29 28 27 26 25 25 25 25 25 25 24 23 23 22 22 21 20 21 21 22 23 24 23 23 23 23 24 25 25
35 33 32 31 28 28 27 28 28 28 27 27 27 27 26 25 24 24 24 24 23 23 23 24 25 26 26 26 27 28 28 28 29
33 34 34 33 30 30 31 31 30 31 30 29 29 30 30 28 26 26 26 26 26 26 26 25 27 28 28 29 31 32 33 33 33
32 35 34 35 35 35 35 34 33 33 31 32 32 33 32 29 29 29 29 29 28 29 29 29 30 31 32 33 34 35 36 37 38
34 35 34 35 36 36 38 36 36 37 35 36 35 34 35 32 34 33 34 33 30 30 33 32 33 34 37 37 39 38 38 39 40
41 41 39 40 39 39 39 39 40 41 40 38 37 36 36 35 36 38 37 36 36 35 37 39 37 39 39 43 43 42 40 41 42

GFSFLT1_700_spd_069.txt.gz
Wind_Speed
6 6 6 5 5 5 5 4 2 2 2 2 1 1 1 1 1 1 1 2 3 5 5 6 7 8 7 6 7 8 8 7 6
5 5 5 5 6 6 5 3 3 2 2 1 1 1 1 0 1 1 2 3 4 5 6 6 6 7 6 6 6 4 3 3 3
6 5 5 5 5 4 4 3 3 3 3 2 2 2 2 2 3 4 3 4 5 5 6 7 6 7 7 7 7 7 7 8 8
5 6 5 5 5 5 5 4 4 4 3 3 3 4 5 5 6 7 6 6 7 7 7 8 8 9 9 9 8 8 9 10 10
1 3 4 4 5 5 5 5 4 4 3 3 4 4 5 6 6 7 7 7 8 8 8 8 9 9 9 9 9 9 9 10 11
4 4 3 3 4 4 3 3 4 3 3 4 4 4 5 6 7 7 7 7 9 9 8 8 8 9 9 9 9 9 9 9 9
8 8 7 6 6 5 5 5 6 6 6 7 7 7 8 8 9 9 9 9 11 10 10 10 10 9 9 8 8 8 8 8 9
12 11 11 11 11 10 11 11 10 10 10 10 10 11 11 12 12 13 13 11 12 11 11 11 10 10 10 9 8 8 7 8 8
17 15 14 14 15 15 15 15 15 14 14 14 14 14 14 16 16 15 16 14 14 12 12 11 11 11 10 9 9 8 9 9 8
20 19 18 17 17 18 18 18 18 18 17 17 17 18 18 18 18 21 19 17 15 14 13 12 12 11 11 10 10 9 9 9 10
23 23 22 21 21 21 21 22 21 21 20 20 20 20 20 20 21 24 20 18 17 15 14 14 13 12 12 11 11 11 11 12 12
26 26 26 24 24 24 25 25 25 24 24 23 22 22 22 22 23 24 21 19 18 18 16 15 15 14 14 13 13 13 15 16 15
28 28 29 28 27 27 28 28 28 27 26 25 24 24 24 24 23 22 23 20 20 20 18 18 18 17 16 16 18 19 19 17 17
29 28 29 30 30 30 31 30 30 29 28 28 27 25 25 25 24 23 23 23 23 20 19 19 20 20 20 21 22 22 21 21 21
33 33 32 32 34 33 33 31 30 30 30 30 30 29 27 26 26 25 24 24 24 24 21 22 22 22 23 24 24 24 25 25 26
36 36 36 37 37 35 33 33 32 32 32 33 33 32 30 29 28 27 27 26 25 27 26 24 25 25 26 26 27 27 27 29 30
38 37 36 36 36 37 34 33 32 33 33 34 34 36 35 32 30 30 30 29 28 29 29 28 29 28 28 28 29 29 30 32 33
37 37 35 35 36 36 35 34 33 34 35 35 38 39 39 34 33 31 31 33 32 31 31 31 32 32 33 31 33 32 34 35 37
40 37 37 37 37 37 35 37 36 37 39 38 40 41 38 36 37 35 34 35 36 35 35 35 36 34 36 36 35 34 37 39 40
43 41 41 42 41 41 40 39 40 39 40 40 41 41 41 40 39 41 37 38 39 39 38 38 41 40 41 40 42 44 44 44 45

GFSFLT1_700_spd_072.txt.gz
Wind_Speed
7 8 8 9 9 8 6 5 4 4 4 4 3 3 2 2 2 4 4 4 5 5 5 6 7 7 8 7 8 8 7 6 8
5 6 7 8 7 7 7 6 6 6 5 5 4 3 4 4 4 4 3 4 5 5 6 7 6 6 6 6 5 5 6 5 4
8 7 7 6 6 6 6 6 6 6 5 4 4 4 4 5 5 5 5 5 5 5 6 6 6 6 6 6 6 6 6 7 7
7 7 7 6 7 6 7 6 6 5 5 5 5 5 5 6 6 5 5 6 5 6 7 7 7 7 7 7 7 8 8 8 9
3 5 6 6 6 5 5 5 5 5 6 5 5 6 6 7 8 7 7 8 8 7 8 8 8 8 8 8 8 8 8 8 8
2 3 3 3 4 5 5 5 5 5 5 6 6 7 8 8 9 9 9 10 10 10 10 9 9 8 8 8 9 9 8 8 7
7 6 6 6 6 6 6 6 6 7 7 8 8 9 9 10 10 11 11 12 12 11 11 10 10 9 9 9 9 9 8 8 8
12 11 10 10 11 11 11 11 11 10 10 12 12 12 12 12 12 13 14 14 16 14 13 11 10 10 9 9 9 8 8 8 8
15 15 15 14 13 13 14 14 15 15 15 14 14 15 15 16 15 15 17 17 16 15 14 13 12 11 10 9 9 9 8 8 8
20 18 18 18 18 16 17 17 18 18 18 19 18 18 17 18 18 18 18 19 17 16 15 14 14 12 12 11 11 10 10 9 9
23 22 21 21 20 21 20 22 22 21 22 21 21 20 20 19 21 21 21 20 18 16 16 16 15 14 13 13 12 12 12 11 12
25 25 24 24 23 23 23 24 25 25 25 24 24 24 22 22 23 23 23 19 18 18 17 17 17 16 15 15 15 15 15 15 16
25 26 25 25 25 25 26 27 27 28 28 27 27 25 25 24 24 27 23 20 18 19 19 19 19 18 17 17 17 18 19 20 19
28 28 27 26 26 26 26 27 29 29 30 30 30 28 27 27 26 25 27 22 20 20 21 21 22 22 21 20 20 20 22 21 20
29 31 32 33 33 30 29 29 30 31 31 32 33 31 30 29 28 28 27 27 25 22 22 23 24 25 24 23 23 22 23 23 25
30 30 32 34 37 36 35 34 33 31 32 33 35 34 32 30 32 31 30 28 27 29 25 25 27 28 27 27 26 26 25 25 26
36 35 33 33 36 38 36 36 35 32 31 32 33 35 35 34 32 34 33 32 30 30 31 28 29 30 30 29 29 30 29 29 28
39 38 37 35 36 36 37 35 36 34 32 33 32 34 37 35 34 34 35 35 34 32 34 33 32 31 31 32 33 32 32 32 31
43 44 41 40 40 39 38 39 37 39 36 37 36 36 39 38 38 35 35 36 38 36 34 37 36 37 37 37 34 34 35 34 37
42 44 45 43 44 43 42 41 42 42 42 40 39 39 40 41 41 41 41 43 41 39 39 42 40 41 43 41 40 39 36 36 39

GFSFLT1_700_spd_075.txt.gz
Wind_Speed
8 8 8 9 9 10 10 8 7 6 5 5 5 5 5 5 4 4 4 5 5 5 5 5 5 6 6 5 6 5 7 8 8
7 7 8 9 9 10 11 10 8 7 7 7 6 5 6 6 5 5 5 5 5 5 5 5 6 5 6 5 6 7 5 4 5
9 9 9 9 8 9 8 8 7 7 6 6 6 6 6 6 5 5 5 5 5 6 6 6 6 6 6 6 5 6 7 6 7
8 9 9 8 8 9 8 8 8 7 7 7 7 8 8 9 7 7 6 6 7 7 8 7 7 7 7 7 7 7 7 7 7
6 6 8 8 8 8 8 7 6 7 7 8 8 8 9 9 9 9 9 9 9 9 9 9 8 8 8 8 7 7 8 8 8
5 5 4 5 6 8 8 8 8 8 8 8 8 9 9 9 9 9 10 11 10 10 10 10 9 9 9 9 9 8 8 7 7
5 5 6 7 7 7 7 8 8 8 8 9 10 11 11 11 11 11 12 13 13 13 11 11 10 10 9 9 9 9 8 8 7
10 9 8 8 8 9 10 11 12 12 12 12 12 13 12 12 13 14 13 14 16 16 14 12 11 11 10 10 9 9 8 8 7
13 13 12 12 12 12 12 12 14 15 15 16 17 17 15 14 14 15 15 15 17 17 15 13 13 12 11 11 10 10 10 9 8
17 17 16 16 16 16 16 16 15 16 17 18 19 20 19 17 17 16 15 17 18 17 15 14 14 13 12 12 11 11 11 11 10
18 19 20 19 20 19 19 20 19 19 20 21 21 21 23 20 19 20 17 18 19 17 16 15 15 14 13 13 13 13 13 12 12
21 21 21 22 22 23 22 22 23 22 22 22 23 24 24 24 22 21 20 20 20 19 18 17 16 16 15 15 15 15 15 15 16
20 19 19 20 22 24 24 24 24 25 24 25 25 26 25 25 26 24 22 22 20 21 20 20 18 17 17 17 17 17 18 18 18
21 21 22 24 25 25 25 25 26 26 27 27 28 29 29 27 28 27 25 24 23 22 23 22 21 20 19 19 19 19 20 20 20
25 25 25 26 27 28 28 29 31 31 32 31 31 32 32 32 30 30 28 27 25 25 24 24 24 24 23 23 22 22 23 22 22
29 29 29 29 29 28 29 30 31 31 32 33 33 32 32 32 31 31 31 31 28 27 27 27 27 27 27 26 26 26 26 26 26
33 32 32 31 33 33 31 31 30 31 33 33 33 35 33 31 30 31 32 32 34 31 28 30 29 29 31 30 30 29 30 30 31
36 36 37 36 35 35 35 34 34 35 34 35 34 37 37 34 32 32 32 33 34 34 32 29 32 32 32 34 33 34 34 33 34
40 39 39 40 41 41 39 38 37 38 37 37 38 38 38 38 39 36 35 36 36 35 34 34 43 37 36 34 37 37 37 37 37
41 43 44 45 44 43 41 41 40 43 43 42 42 41 42 42 42 41 40 40 39 40 37 38 40 39 43 42 43 45 43 41 41

GFSFLT1_700_spd_078.txt.gz
Wind_Speed
7 8 10 10 10 9 8 7 7 7 8 8 7 6 6 6 5 5 6 6 5 5 6 6 6 6 6 7 7 6 6 6 4
9 9 9 9 9 9 10 10 9 10 10 10 9 8 8 7 7 7 6 6 6 6 7 6 6 7 7 7 7 6 5 6 5
10 10 10 10 11 10 10 10 11 11 10 10 9 9 9 8 8 8 8 8 7 7 7 7 7 7 7 6 7 7 7 7 7
10 10 10 11 10 10 10 11 10 10 10 10 10 10 9 9 9 9 8 8 9 9 9 8 8 7 7 7 7 7 7 7 8
10 10 9 10 10 11 11 10 10 10 9 9 9 9 9 9 9 9 9 9 9 10 10 10 9 9 8 7 7 7 7 7 7
9 8 7 8 8 7 8 8 9 10 11 11 11 11 10 10 9 10 11 11 11 11 11 11 10 9 9 8 8 7 7 7 7
2 4 4 5 6 6 6 7 8 9 9 10 11 12 11 11 12 12 13 13 13 14 13 11 11 10 10 10 9 9 8 7 7
8 8 8 8 7 6 6 8 9 10 11 11 11 12 13 12 13 14 15 15 15 16 15 13 11 11 11 11 10 10 9 9 9
12 12 13 12 11 11 11 11 11 12 13 14 14 14 14 15 15 15 16 16 17 17 16 14 12 12 13 12 12 11 10 10 10
16 16 15 15 15 15 16 16 16 16 16 16 17 16 16 16 16 17 17 17 18 18 17 15 14 14 14 14 13 12 11 11 11
18 18 17 16 16 18 19 19 19 19 19 20 20 20 19 19 19 19 18 18 19 19 19 16 16 16 16 16 15 14 13 13 12
18 18 17 17 17 18 19 19 20 21 21 22 22 23 23 22 21 21 21 20 20 20 20 19 18 18 17 18 17 16 16 16 16
19 19 18 18 18 18 18 19 20 21 22 23 24 24 26 25 24 24 25 24 23 22 21 21 20 20 19 19 20 19 19 19 18
20 18 18 19 20 21 23 24 25 25 26 27 27 28 28 29 28 27 27 27 26 25 23 23 22 22 22 21 22 22 22 21 21
22 22 22 24 25 24 25 25 25 26 28 30 31 30 29 30 31 29 29 28 28 28 26 26 25 24 25 24 24 25 26 25 25
24 24 26 28 27 26 26 27 28 27 27 30 31 31 31 30 30 30 29 28 28 28 28 28 29 26 28 29 28 28 28 29 29
29 29 30 31 30 29 30 30 30 30 31 33 33 35 33 31 30 30 30 29 30 30 31 30 33 34 36 36 32 32 31 33 34
34 34 33 32 33 34 33 32 33 34 34 34 34 38 37 34 32 31 32 34 35 34 32 33 34 35 37 38 36 43 40 38 39
39 39 38 37 37 38 38 38 39 38 38 36 36 38 38 40 41 36 35 37 37 39 37 38 41 38 44 39 41 42 45 44 44
42 42 41 40 42 43 43 40 38 37 38 39 39 40 43 43 43 45 41 39 40 41 42 43 45 46 49 45 40 45 45 46 44

GFSFLT1_700_spd_081.txt.gz
Wind_Speed
8 9 10 11 11 12 13 12 13 12 10 10 10 9 10 10 10 9 9 10 10 9 9 9 10 10 10 9 9 9 9 7 8
11 11 11 11 11 11 12 13 12 12 12 12 12 12 12 11 11 10 11 10 9 9 9 9 9 9 9 10 9 9 9 9 7
12 12 12 12 12 13 13 13 13 13 13 14 14 13 13 13 12 12 11 11 11 11 10 10 10 10 9 9 9 9 8 9 9
13 13 12 12 13 12 12 11 11 11 11 11 11 11 11 11 11 12 11 11 11 11 11 10 10 10 9 9 9 9 8 8 9
14 13 13 13 12 12 11 11 11 11 12 12 12 12 11 12 12 12 12 12 12 13 13 12 11 10 10 10 9 9 9 8 8
12 11 9 10 11 11 11 10 10 11 11 12 11 11 12 12 12 12 13 14 13 14 14 13 12 11 10 10 10 10 9 8 8
1 2 4 5 6 5 6 8 9 10 11 12 11 11 10 10 11 12 13 14 14 14 16 15 13 12 11 11 11 11 10 9 9
7 7 7 7 7 7 7 6 7 8 10 11 12 12 12 12 13 13 13 15 15 16 17 17 15 13 12 12 12 12 11 10 10
11 11 11 11 11 11 11 11 12 13 13 13 12 12 12 13 15 16 15 15 16 16 17 17 15 14 14 13 13 13 13 12 11
15 15 14 13 14 14 14 15 15 15 16 17 16 16 15 15 16 17 17 17 17 17 17 18 16 15 15 15 15 14 14 14 13
17 16 15 15 15 15 16 16 17 18 18 19 19 19 18 18 18 19 19 19 19 19 19 19 18 17 17 17 17 16 16 16 16
17 16 15 16 16 16 17 17 18 19 19 20 20 20 20 20 21 21 21 21 21 20 21 20 20 19 19 19 18 18 18 19 19
15 16 15 16 17 17 18 19 20 21 22 22 23 23 23 22 23 24 23 23 23 23 23 23 22 21 21 21 21 21 21 22 22
16 16 17 18 18 18 19 20 21 22 24 24 25 26 26 27 27 26 25 25 25 25 25 26 25 24 23 24 24 24 24 25 26
18 19 20 21 21 21 22 23 24 23 25 27 27 27 26 27 27 26 26 25 25 25 26 27 27 27 27 25 26 27 27 28 29
22 22 22 23 24 25 26 26 26 27 28 29 29 30 30 29 27 26 26 26 25 25 26 28 29 30 31 30 29 32 37 35 33
26 26 26 28 29 29 29 30 30 32 30 32 34 37 35 30 28 28 28 27 28 28 30 30 31 33 35 39 38 39 38 43 41
30 31 31 32 33 33 32 33 34 34 32 33 37 40 41 37 31 30 31 31 30 31 32 32 33 39 42 44 44 48 45 42 46
33 34 35 35 37 37 37 36 36 37 39 38 36 36 38 39 42 37 36 36 35 35 35 37 36 35 38 40 43 44 47 45 44
38 39 41 40 41 41 41 40 41 40 38 36 33 35 38 37 40 41 40 39 38 37 39 40 43 39 46 44 43 40 43 41 35

GFSFLT1_700_spd_084.txt.gz
Wind_Speed
11 12 12 13 13 14 14 14 14 14 14 14 14 14 14 14 13 13 13 14 13 12 12 12 12 11 11 11 11 10 10 9 7
13 13 14 14 14 13 13 13 14 15 16 15 15 15 15 14 14 14 14 14 13 13 12 12 11 11 11 10 10 10 10 9 10
14 14 14 14 13 13 12 12 12 13 12 12 12 12 12 12 12 12 13 12 12 12 12 11 10 10 10 9 9 9 9 10 10
16 16 15 14 14 13 13 13 14 13 13 13 12 12 13 13 12 13 13 13 13 13 12 11 10 10 10 10 10 9 9 9 9
16 14 14 16 16 16 14 14 14 13 13 12 12 12 13 13 13 13 13 14 13 13 13 13 12 11 10 10 10 10 10 10 9
10 11 11 11 11 12 13 14 14 13 13 12 11 11 11 11 11 12 13 13 15 14 14 15 14 12 11 10 11 11 10 10 10
2 1 3 5 5 3 3 3 5 6 8 10 11 11 11 12 12 12 13 14 14 15 15 15 15 12 11 10 10 10 10 10 10
6 5 5 5 5 6 6 7 7 8 9 9 8 8 9 11 12 13 13 14 14 15 16 16 15 13 12 11 11 11 11 10 11
11 10 10 9 9 9 9 9 10 11 12 13 13 12 12 12 13 14 14 14 14 15 16 16 16 15 13 13 13 13 12 12 11
14 14 13 13 12 12 12 12 12 13 14 15 15 15 15 15 16 16 16 16 16 16 16 17 17 16 15 15 15 15 14 13 13
17 16 15 14 14 13 13 13 14 15 15 16 16 17 17 18 19 19 19 19 19 18 19 19 19 18 17 17 17 17 16 16 16
17 15 14 14 14 13 13 14 15 16 16 17 18 19 19 19 20 20 20 20 20 20 21 21 21 21 21 20 20 20 19 19 20
15 14 15 16 14 14 16 16 15 17 18 19 21 21 22 22 23 23 23 23 22 22 22 22 22 22 23 24 23 23 23 22 23
16 17 17 16 16 16 17 18 18 19 21 21 22 22 23 22 22 22 23 23 22 21 22 23 23 24 24 26 27 28 26 27 26
16 16 18 18 19 20 21 22 22 22 23 24 24 25 24 24 24 23 23 22 21 22 23 23 23 24 25 27 29 32 34 32 31
21 21 21 21 22 22 24 25 26 26 26 29 29 28 27 26 25 25 24 24 24 24 23 24 26 28 29 30 32 34 38 44 40
25 24 24 26 27 26 27 29 30 30 29 33 34 34 32 32 29 26 27 26 26 27 28 28 29 29 29 29 31 35 39 45 48
29 28 29 29 30 30 31 31 33 33 33 34 35 38 41 40 35 31 28 29 31 31 32 34 34 35 35 34 34 34 37 35 41
31 31 32 32 32 33 33 35 35 36 38 38 38 39 39 38 38 32 30 29 32 31 32 31 31 32 38 38 39 36 35 40 43
33 34 35 35 36 38 38 38 39 39 38 39 38 35 35 33 34 38 36 38 31 32 32 33 33 35 31 38 32 39 38 39 43

GFSFLT1_700_spd_087.txt.gz
Wind_Speed
13 14 14 15 15 15 15 16 16 15 15 15 15 16 16 16 15 15 15 14 14 14 14 13 13 12 11 11 11 9 8 6 6
15 15 15 15 15 16 15 16 15 15 14 14 14 14 13 13 13 13 13 13 12 12 12 12 12 12 11 10 10 10 9 9 10
16 16 16 15 15 15 14 14 14 13 13 13 13 13 12 12 12 12 13 12 12 12 12 11 10 9 9 9 9 9 9 9 9
18 18 18 17 16 15 15 15 14 14 14 13 13 13 13 13 13 13 13 13 13 12 12 12 10 9 8 8 8 8 8 8 8
17 16 15 16 17 18 18 17 17 16 15 14 13 12 12 11 11 12 12 12 13 13 13 12 12 10 8 7 7 7 8 8 8
12 11 12 12 11 10 11 11 11 11 10 11 11 10 10 10 10 10 10 11 12 12 13 13 13 11 9 8 8 8 8 8 8
6 5 4 4 5 4 4 3 4 4 4 4 4 5 7 9 9 10 10 11 12 12 12 13 13 12 10 10 10 10 9 9 9
5 4 3 3 4 4 4 5 5 6 6 7 7 7 8 9 11 12 12 12 12 13 13 13 13 13 12 11 11 11 11 11 11
9 9 8 8 8 8 8 9 9 9 9 9 10 10 11 12 13 14 14 14 14 14 15 16 15 15 14 13 13 13 13 13 13
13 13 12 12 11 11 11 11 11 11 11 11 12 13 13 14 15 15 16 16 17 17 17 17 17 18 17 16 15 15 14 14 14
17 16 15 15 14 13 12 12 13 13 12 13 14 14 15 15 16 17 17 18 18 19 20 19 19 19 20 19 18 18 17 17 17
19 17 16 15 14 14 14 14 14 15 13 14 15 16 17 18 19 20 20 21 21 22 22 22 21 21 22 22 21 21 21 20 20
17 15 15 15 15 15 15 15 14 14 15 16 17 18 17 19 20 19 20 20 21 22 23 23 22 22 23 23 25 24 24 24 24
15 15 16 16 17 16 16 16 17 18 19 19 20 20 20 21 22 21 21 21 22 22 22 22 23 23 23 24 26 28 27 26 26
16 16 17 17 17 18 19 20 21 21 23 24 23 23 24 25 22 23 22 23 24 24 24 23 24 25 25 26 26 28 31 28 28
18 18 19 20 20 21 22 23 24 25 27 28 27 27 28 27 26 26 27 27 26 25 26 26 27 28 28 28 28 29 27 32 33
20 21 22 24 25 26 26 27 28 29 29 31 32 33 31 30 30 32 30 26 26 27 28 30 31 31 32 33 33 31 27 28 35
27 28 28 28 28 28 29 30 31 32 32 32 35 37 40 38 34 31 28 24 23 25 28 30 33 32 30 33 32 33 35 35 38
32 32 32 32 32 31 31 33 34 35 35 36 37 38 38 37 39 33 28 26 27 28 29 31 31 31 30 31 32 31 31 30 27
32 32 32 32 34 34 35 36 37 38 39 39 38 36 34 33 34 36 30 29 28 30 30 30 29 30 30 32 31 31 30 30 31

GFSFLT1_700_spd_090.txt.gz
Wind_Speed
14 14 14 14 15 14 15 15 15 15 15 15 15 14 14 13 13 12 12 11 11 10 10 10 10 9 9 9 9 8 7 5 7
15 14 14 14 15 14 14 14 14 13 12 12 11 12 11 11 11 11 11 10 11 11 10 9 9 8 8 8 7 7 7 7 6
15 15 15 14 13 13 13 13 13 13 13 12 13 12 12 12 11 11 11 12 11 11 11 11 10 9 8 8 7 7 8 8 8
17 17 17 15 14 14 14 14 14 13 13 13 12 12 11 11 11 11 11 11 11 12 11 11 10 9 8 7 8 8 8 9 9
16 17 17 16 17 16 16 15 14 14 13 12 11 10 10 9 9 9 9 10 10 10 11 12 12 11 9 8 8 8 9 10 10
14 13 13 11 11 10 9 8 7 7 6 6 7 7 8 8 8 9 9 9 10 10 11 11 12 12 10 10 9 9 9 9 10
9 7 6 5 4 3 2 1 1 2 3 4 5 6 7 8 8 9 10 11 11 12 12 12 13 13 13 12 11 11 10 10 10
8 6 5 5 4 4 4 4 4 5 6 7 8 9 10 10 10 11 12 13 14 14 14 14 14 15 14 14 13 12 12 12 11
10 10 9 9 8 8 8 8 8 8 8 9 10 11 12 13 13 13 14 15 16 16 16 16 16 17 17 17 16 15 14 14 14
15 14 13 13 12 12 11 11 11 11 11 12 12 13 13 14 15 16 17 17 18 18 18 18 19 19 20 20 20 18 18 17 17
18 18 17 16 15 14 13 13 13 13 13 14 14 14 14 16 16 18 19 20 20 21 22 22 22 23 23 23 23 22 21 20 20
22 21 20 18 17 15 15 15 15 15 16 15 15 15 15 16 16 18 19 21 21 22 23 23 23 23 24 24 22 23 23 23 23
23 22 20 18 17 16 16 16 16 16 16 17 17 17 17 17 18 20 21 21 23 24 24 25 24 24 23 24 23 21 21 23 24
21 20 19 17 17 17 17 17 17 18 19 20 20 21 20 20 21 23 23 23 24 25 27 27 26 27 26 25 26 27 24 23 23
21 20 19 19 19 18 18 19 20 21 22 23 24 24 24 24 24 25 25 26 27 29 30 29 28 28 28 29 28 27 29 29 26
21 21 21 20 20 20 22 22 23 24 25 27 27 27 27 27 27 27 28 30 31 35 33 30 31 31 31 32 32 32 30 28 35
21 20 21 22 23 24 25 26 27 27 28 30 32 32 31 30 29 30 32 32 31 28 29 30 31 32 33 34 34 32 29 25 30
25 26 27 27 27 27 28 28 29 30 32 32 34 36 36 35 37 33 30 28 28 28 26 28 28 29 33 31 31 31 29 25 28
31 30 31 31 31 32 32 33 33 34 34 35 36 38 39 39 39 35 25 26 27 27 26 26 27 30 31 31 32 29 30 29 26
32 32 33 34 36 35 34 35 36 37 37 38 40 40 39 36 35 34 29 29 27 26 25 26 27 29 31 31 30 30 29 28 27

GFSFLT1_700_spd_093.txt.gz
Wind_Speed
14 15 15 14 14 14 14 14 14 14 14 14 13 13 12 10 10 10 11 11 11 11 10 10 9 10 10 9 9 9 9 8 9
13 14 14 14 14 13 13 12 12 12 12 11 12 11 10 11 11 11 12 12 11 12 11 11 10 10 9 9 9 9 9 9 10
15 14 13 13 12 12 12 12 13 13 13 12 12 12 11 12 11 11 12 12 12 12 12 13 12 11 11 10 10 10 10 10 10
15 14 14 14 14 14 13 13 13 13 13 12 12 11 11 11 11 11 11 11 11 11 11 12 12 12 11 11 11 10 10 10 10
16 16 16 16 16 14 14 13 12 12 11 11 10 10 10 10 11 11 11 11 12 12 12 12 12 12 12 12 11 11 12 12 11
15 13 13 12 12 10 9 8 7 6 5 6 6 7 8 9 10 11 12 12 13 13 13 13 13 13 13 13 13 13 12 12 12
12 10 8 6 5 4 3 2 3 4 5 6 7 8 9 10 11 12 13 14 15 15 15 15 15 15 15 15 14 14 14 14 14
9 7 5 4 3 3 4 5 5 6 7 7 9 11 11 12 13 13 14 15 16 17 17 17 18 17 17 17 17 16 16 16 16
10 9 8 7 7 8 8 8 8 9 9 10 11 12 13 13 15 15 16 17 18 18 19 19 19 19 19 19 19 18 18 18 18
13 13 12 12 12 12 12 12 11 10 11 11 13 13 13 14 15 17 17 18 19 20 20 21 21 21 21 21 21 21 20 20 20
17 17 17 17 17 16 15 14 13 13 12 13 15 14 14 15 16 17 17 19 20 20 21 21 21 21 21 20 21 21 21 21 22
21 21 21 20 20 19 17 16 15 15 14 15 14 14 16 17 17 18 20 21 21 21 22 23 25 25 23 22 19 21 22 21 21
24 24 24 23 21 19 17 16 16 17 16 16 16 17 17 19 19 20 22 23 24 23 25 25 27 29 29 27 24 21 22 22 21
27 26 24 23 20 18 18 18 18 18 18 18 19 20 20 21 21 22 24 25 26 27 28 29 31 31 29 27 27 28 25 24 23
26 24 22 21 19 19 19 20 19 20 21 21 22 23 23 24 24 25 27 28 29 30 32 33 35 32 30 28 29 28 29 29 27
25 22 23 21 20 21 21 21 21 22 24 25 25 26 26 28 28 28 29 32 33 35 33 33 32 30 29 30 29 29 29 24 29
23 23 23 22 22 23 24 24 24 26 26 27 29 29 30 32 32 30 32 34 35 34 32 29 29 28 30 29 28 30 26 26 23
20 23 23 24 25 26 27 27 27 28 29 29 31 32 33 33 34 35 36 35 31 27 28 29 28 26 28 28 29 30 29 27 23
24 25 26 27 29 30 31 32 32 33 33 34 32 34 35 36 39 40 37 31 28 27 28 28 25 26 27 27 28 29 29 27 26
25 28 27 28 33 34 34 35 36 35 35 37 37 35 36 38 40 40 35 31 28 29 26 27 25 26 27 28 28 28 28 28 28

GFSFLT1_700_spd_099.txt.gz
Wind_Speed
15 15 16 16 15 16 15 14 13 13 12 12 14 14 13 15 15 15 15 15 15 16 16 15 15 14 14 14 13 13 12 13 12
15 16 16 15 15 14 14 13 13 13 13 14 15 15 15 16 15 15 15 15 16 16 16 17 17 17 15 14 14 13 13 13 12
16 16 16 14 14 14 14 14 14 15 16 16 16 18 16 17 16 16 16 17 17 17 17 17 17 16 16 15 15 15 14 14 13
15 15 15 14 15 16 17 17 17 16 16 15 15 15 14 14 14 14 15 15 16 16 17 17 16 16 16 16 15 15 14 14 14
15 16 16 17 18 17 16 15 14 14 13 13 13 13 13 12 12 13 13 14 15 15 15 15 15 15 15 15 15 15 14 14 14
18 18 16 16 16 15 13 12 10 10 10 11 12 11 11 10 11 12 12 13 14 14 15 15 14 14 14 14 14 14 14 14 14
18 17 14 12 11 9 7 7 7 8 8 9 10 11 11 10 10 12 13 14 14 15 15 15 15 15 15 14 14 14 14 13 13
14 11 9 6 5 4 4 5 6 7 8 9 10 11 11 10 11 12 13 14 15 17 16 15 15 15 15 15 15 14 13 13 12
10 7 4 2 0 2 4 6 7 8 7 9 10 11 12 10 11 12 12 13 15 17 17 17 17 16 16 17 15 14 14 13 13
8 7 5 2 3 6 7 8 9 10 9 9 11 11 11 11 11 12 13 14 16 17 17 17 18 18 19 19 18 16 14 13 13
11 8 7 6 7 8 9 10 11 10 9 10 12 12 11 12 12 13 14 15 17 19 19 20 20 21 20 19 20 17 15 15 15
14 13 12 11 11 12 12 12 12 11 11 12 12 11 12 13 14 14 15 16 18 20 22 23 24 23 21 20 20 18 15 15 15
19 18 17 17 16 15 15 14 13 12 12 12 13 12 13 14 15 16 17 19 19 22 23 26 26 23 21 20 19 16 15 17 17
25 24 22 22 20 19 18 16 14 14 13 14 13 14 15 16 18 19 20 21 21 23 25 28 27 24 21 16 16 15 18 18 18
29 28 27 26 24 22 21 17 15 15 15 15 15 16 17 18 19 21 22 23 25 24 27 28 28 25 21 18 19 14 15 19 19
32 31 30 29 27 25 22 19 17 17 18 17 17 18 19 20 21 24 25 25 26 27 30 29 28 24 22 22 20 17 15 17 20
32 27 28 28 27 25 23 21 19 18 19 19 20 21 21 22 24 25 26 26 27 29 30 31 30 25 23 23 20 19 18 19 18
29 34 31 23 22 23 23 23 22 20 20 19 22 24 25 25 25 25 28 29 30 32 32 31 29 27 24 22 20 19 20 20 20
25 30 35 40 39 36 28 33 31 25 24 26 22 23 28 28 28 29 30 30 31 33 31 29 29 26 24 22 22 22 22 21 21
30 31 29 29 31 37 37 31 29 29 31 30 27 20 26 30 29 30 31 32 32 32 31 30 28 24 23 24 24 24 24 22 21

GFSFLT1_700_spd_102.txt.gz
Wind_Speed
15 15 15 15 15 14 14 14 14 13 13 14 15 14 16 16 16 16 16 15 16 16 16 16 16 15 14 14 14 13 13 12 11
16 16 16 15 15 13 13 14 15 15 16 17 17 17 18 17 16 16 16 16 17 17 17 16 16 15 15 14 14 13 13 12 12
16 15 15 15 15 15 15 17 18 18 19 17 16 17 16 15 15 14 15 15 15 15 15 14 14 14 14 14 13 13 13 12 12
16 16 16 16 16 17 18 18 17 16 15 16 14 14 14 13 12 13 13 13 14 14 13 13 13 13 13 13 13 12 12 12 12
17 17 19 19 18 17 17 16 15 15 14 14 12 11 11 10 10 11 11 12 13 13 13 12 12 12 12 12 12 12 11 11 11
19 20 19 19 18 16 15 13 12 11 11 12 12 10 10 9 9 10 11 12 14 14 14 13 13 13 13 13 12 12 11 10 10
19 19 17 16 14 12 10 9 8 8 9 10 10 10 9 8 9 10 11 12 14 15 14 13 13 13 13 13 13 12 11 11 10
17 16 13 11 8 7 6 6 7 7 8 9 10 10 9 8 10 10 10 12 13 14 14 14 15 14 14 15 14 12 11 10 10
15 12 10 7 5 4 4 4 5 7 7 8 10 10 9 7 9 10 10 11 13 14 14 15 15 16 16 15 14 14 12 11 11
12 10 7 5 2 1 3 5 6 6 7 7 8 9 8 8 8 9 11 11 12 14 16 16 17 18 17 15 15 15 13 11 11
11 8 6 5 5 6 6 6 8 8 9 9 8 9 8 8 9 10 11 13 14 15 17 18 19 18 17 18 15 15 13 11 12
13 11 10 10 10 11 10 10 10 10 10 10 10 10 10 9 10 12 13 14 16 17 19 19 21 19 19 17 17 15 12 11 13
16 15 15 15 15 15 14 14 14 13 11 11 11 11 11 12 13 14 15 16 17 17 19 20 21 22 18 13 16 13 15 15 16
21 21 21 20 20 20 19 19 18 16 14 13 13 13 13 14 15 16 16 17 18 18 20 22 24 21 17 12 12 15 17 18 18
27 27 27 26 25 24 22 22 21 19 18 16 15 15 15 16 17 19 19 20 20 20 21 22 24 22 19 16 14 14 14 18 20
30 31 31 29 27 26 26 26 24 22 20 19 18 17 17 16 18 20 23 23 23 23 23 23 25 23 20 18 18 16 13 14 18
31 31 31 31 26 26 25 25 24 24 23 23 21 20 18 18 20 22 24 25 25 26 25 27 26 24 21 21 19 18 16 17 18
30 30 31 30 25 29 30 21 22 23 24 24 24 22 22 21 20 22 24 25 27 28 26 28 28 26 24 21 19 18 19 18 19
30 26 28 30 32 33 31 29 30 37 36 29 26 26 30 31 28 22 25 26 26 29 25 30 29 27 25 21 19 19 20 20 21
29 32 36 33 34 24 28 35 34 36 41 46 47 43 30 32 38 21 29 28 28 31 28 29 29 29 27 21 21 22 22 22 22

GFSFLT1_700_spd_105.txt.gz
Wind_Speed
14 13 13 14 14 13 13 12 13 15 14 15 14 15 16 17 17 18 17 16 16 16 15 14 14 14 13 13 13 12 12 12 12
14 14 14 14 13 13 14 15 15 17 18 17 16 16 16 16 15 15 14 14 14 13 13 13 13 13 13 13 13 12 12 12 12
15 15 15 14 15 16 17 18 18 18 17 16 15 15 15 14 14 13 13 14 13 12 12 12 11 11 11 11 11 11 11 11 11
16 16 16 17 18 19 18 18 17 16 14 13 12 12 12 12 12 12 12 13 13 13 12 12 11 11 11 11 11 10 10 10 10
17 17 18 19 19 18 18 17 17 16 15 14 12 11 11 11 11 12 12 13 14 14 13 13 12 12 12 12 11 10 10 10 10
19 20 20 19 18 17 16 15 14 14 13 11 11 11 11 11 10 11 11 12 14 13 13 13 13 13 12 13 13 12 11 10 10
21 21 20 18 16 14 12 11 10 10 10 9 9 9 9 9 9 9 10 11 12 13 13 14 14 13 13 13 13 12 11 10 10
20 18 16 14 11 9 8 6 6 7 7 7 8 8 8 7 8 8 9 10 12 13 14 15 15 16 16 15 13 13 12 11 10
18 16 13 10 8 6 4 3 5 6 6 7 7 7 7 6 7 8 9 10 11 13 14 16 18 18 17 15 14 14 13 10 10
16 13 10 7 4 2 1 3 5 6 7 7 8 7 7 7 7 8 9 11 12 14 15 16 18 19 19 19 16 14 13 12 10
14 11 8 5 4 3 4 5 7 8 8 8 9 9 8 8 9 9 10 11 12 14 15 17 19 20 22 18 16 13 14 12 11
14 11 9 8 8 8 9 9 10 11 10 10 11 10 10 10 10 12 13 14 14 15 16 17 18 21 21 17 15 16 13 14 14
16 14 13 13 13 13 14 14 14 14 14 14 13 13 12 12 12 13 14 15 16 18 18 17 17 20 19 15 16 16 17 17 17
19 19 18 18 18 18 20 19 19 19 18 19 17 16 15 14 14 14 15 16 17 18 19 20 19 20 18 13 11 15 19 20 19
23 23 23 23 23 24 24 24 24 23 23 22 20 19 19 17 16 17 17 17 18 19 20 21 20 21 19 15 11 13 16 17 18
29 29 29 29 29 29 29 28 27 26 26 25 24 23 22 20 19 19 19 19 19 20 21 21 23 21 19 19 17 16 16 15 16
31 30 30 30 31 31 29 26 24 26 24 26 27 26 24 24 22 22 22 21 20 21 21 26 22 26 22 21 20 17 16 15 17
30 30 29 30 31 32 32 27 25 36 32 35 29 29 27 26 26 24 22 22 21 21 24 24 24 26 28 23 21 19 17 16 16
29 26 23 29 28 22 29 34 36 36 28 26 29 38 39 30 36 36 38 35 33 24 22 20 28 28 28 24 24 20 18 19 19
26 27 26 23 28 30 31 41 39 37 39 32 29 32 35 38 42 42 34 31 37 30 24 25 32 30 28 26 23 19 19 20 21

GFSFLT1_700_spd_111.txt.gz
Wind_Speed
18 16 15 15 14 13 13 14 15 17 17 18 18 16 16 16 15 14 12 12 12 12 12 11 11 11 11 11 11 11 11 11 11
18 16 16 16 14 15 16 17 18 18 18 17 16 16 15 14 14 13 12 11 11 11 11 11 11 11 11 11 10 10 9 9 9
18 18 17 16 17 18 19 19 18 17 16 15 14 14 14 13 12 12 12 12 12 12 12 12 12 12 12 12 11 10 9 8 8
20 19 18 19 21 21 19 18 17 16 15 14 13 13 12 12 11 12 13 13 13 13 13 13 12 12 11 11 11 10 10 9 9
20 20 20 22 21 20 20 19 17 16 15 13 12 11 11 10 10 10 12 12 12 13 13 12 13 13 12 12 11 10 9 8 8
22 22 23 22 22 20 19 17 16 14 13 12 11 10 9 9 9 9 10 11 12 12 13 14 16 16 15 14 12 10 9 9 8
24 25 24 23 22 19 17 14 12 11 11 10 10 9 8 8 8 8 9 10 11 12 13 15 16 16 16 16 13 11 10 9 9
26 25 24 22 20 17 15 13 11 9 8 7 7 7 7 6 6 6 7 8 10 11 13 15 16 16 18 19 15 12 11 10 10
26 25 24 21 18 16 13 11 9 7 6 5 5 5 5 4 4 5 5 6 7 9 11 13 14 15 17 18 16 12 13 11 10
27 25 22 19 15 12 9 7 6 4 3 3 3 5 6 6 6 6 7 8 9 10 12 13 14 15 15 18 14 13 12 12 12
25 22 19 15 12 8 5 3 2 2 2 3 4 6 7 8 9 9 10 10 10 11 13 14 15 16 17 17 16 13 12 13 12
24 20 16 13 10 6 4 3 3 4 6 7 8 9 10 11 11 12 12 12 12 12 13 13 15 17 17 16 16 15 15 15 14
24 20 17 13 10 8 6 7 8 9 10 12 13 13 14 15 15 15 15 14 14 14 13 14 14 16 18 18 17 16 14 16 15
24 20 17 14 11 11 10 11 12 13 14 15 16 16 17 18 19 18 18 18 17 17 17 17 17 16 15 18 18 17 15 17 18
25 21 18 16 15 14 15 16 17 18 19 20 20 19 17 16 17 22 20 20 20 18 19 19 20 19 15 15 17 18 19 17 17
25 22 20 19 18 19 20 20 20 22 22 22 21 18 17 21 24 24 22 21 22 21 21 23 20 19 19 20 15 20 21 19 18
26 23 22 22 22 22 23 21 21 21 20 18 16 22 29 29 29 24 21 22 20 25 23 21 19 19 26 27 18 21 23 22 21
23 21 20 22 24 23 20 19 19 15 12 16 21 22 14 15 19 19 26 32 32 32 35 31 27 34 39 31 21 20 26 22 19
25 24 24 23 25 19 16 15 9 9 29 19 19 17 22 20 20 20 20 25 34 37 30 31 38 36 35 32 26 19 25 22 19
25 28 24 21 18 15 11 13 18 22 15 17 19 22 21 17 19 19 18 30 28 31 27 23 27 33 25 28 12 22 25 26 21

GFSFLT1_700_spd_114.txt.gz
Wind_Speed
15 15 13 15 14 13 13 14 15 16 16 15 15 14 14 13 12 11 11 10 10 11 11 10 10 10 10 10 9 9 9 9 9
19 17 16 16 14 14 14 15 17 17 15 14 14 14 14 13 12 11 11 10 11 11 11 11 10 10 10 10 10 9 8 8 8
19 19 18 16 15 16 17 17 16 15 14 14 13 13 13 12 12 12 11 11 12 12 12 12 11 11 10 10 10 8 8 7 7
21 20 18 17 18 19 18 16 15 14 13 13 12 12 12 11 11 12 12 12 12 12 12 13 12 12 11 10 9 8 7 7 7
22 20 20 20 20 19 17 16 15 14 13 12 11 11 10 11 10 10 10 10 11 12 12 13 14 13 13 12 11 9 9 8 8
23 22 23 22 21 19 18 17 15 13 12 11 10 10 9 9 8 8 8 9 9 10 11 12 13 13 15 14 12 10 9 9 8
26 26 25 24 22 20 17 15 13 12 11 10 10 8 7 6 6 6 7 7 8 9 10 11 12 13 15 16 14 11 10 9 8
29 29 28 25 23 19 16 14 11 10 8 8 7 7 6 5 5 5 6 7 8 10 11 13 13 13 15 16 15 12 11 9 9
31 30 28 25 22 18 15 12 10 8 7 5 5 4 4 4 4 5 7 8 9 11 12 13 13 14 14 16 14 13 12 10 10
31 30 27 24 20 17 14 11 9 6 4 3 2 3 3 3 4 5 7 9 10 11 13 14 14 14 15 16 16 16 11 10 11
32 30 27 23 20 16 13 10 8 5 3 1 2 4 6 7 8 8 9 10 11 11 12 14 15 15 16 16 16 16 16 14 14
33 30 26 22 18 15 11 8 6 4 3 4 6 7 9 11 12 12 13 14 14 14 15 15 16 17 17 17 15 16 18 18 17
33 29 25 21 17 13 10 8 7 6 7 8 9 11 13 14 15 15 16 17 18 17 17 17 17 17 17 18 18 18 15 16 17
33 29 25 21 17 14 11 10 10 10 11 12 14 15 16 17 17 17 17 18 19 19 18 19 20 21 19 17 16 17 16 17 17
33 29 25 22 18 16 14 14 14 14 15 15 16 17 17 16 15 17 20 25 22 21 20 19 21 22 21 17 17 17 18 16 16
34 30 27 23 21 19 18 18 17 17 16 15 16 15 16 19 25 29 28 26 22 21 21 19 20 23 20 21 23 30 24 22 20
35 31 28 25 23 22 22 20 19 16 13 10 12 19 20 22 25 18 16 16 20 23 24 27 27 23 27 30 31 36 26 23 22
35 32 29 27 24 22 21 19 17 16 16 14 15 24 21 20 20 19 18 17 20 24 25 27 33 34 33 37 35 37 34 25 21
34 30 28 23 21 20 20 23 22 13 18 19 18 18 18 19 24 19 19 21 23 23 20 24 27 29 31 29 31 23 20 22 21
32 31 28 25 18 18 25 15 18 15 12 20 18 18 19 23 23 19 18 17 20 21 23 25 28 25 30 27 22 26 19 22 20

GFSFLT1_700_spd_117.txt.gz
Wind_Speed
12 14 13 12 12 11 10 11 12 13 14 13 13 12 12 12 11 10 10 10 10 11 11 11 11 11 10 10 10 9 9 9 10
14 15 14 14 12 11 12 14 15 14 14 13 12 12 12 12 11 11 10 11 11 11 11 11 11 11 10 11 10 10 9 9 9
17 16 15 14 13 13 14 16 15 14 13 13 12 12 11 12 12 12 11 11 11 12 12 12 12 12 11 11 10 9 9 9 9
19 18 17 15 15 15 16 15 14 13 13 12 11 11 11 12 12 11 11 11 11 12 13 15 15 15 14 13 11 10 9 9 8
21 20 17 16 17 17 15 14 13 13 12 12 11 11 11 10 10 10 10 10 10 12 13 14 14 15 16 14 13 11 10 9 9
24 21 19 20 20 18 17 15 14 13 11 11 10 10 9 8 8 8 9 9 11 12 13 14 15 15 15 16 14 12 11 10 10
25 23 24 23 21 20 18 15 14 12 11 10 9 8 8 7 6 6 7 8 10 11 12 13 14 14 15 16 15 14 12 11 10
28 27 26 25 23 20 17 15 13 11 10 9 8 7 6 5 5 5 6 7 8 9 11 12 12 14 15 16 16 16 14 11 12
29 29 28 26 23 20 17 14 12 10 9 7 6 5 4 4 4 5 6 7 8 10 11 12 13 13 14 15 17 17 15 14 15
31 31 28 25 23 20 17 14 12 9 7 5 3 2 2 4 5 6 8 10 10 11 12 13 14 15 16 16 16 16 15 15 15
34 33 30 27 23 20 17 13 10 7 5 3 1 2 4 5 7 9 10 11 13 14 14 14 14 14 16 16 16 16 18 17 16
36 35 32 27 24 20 16 13 11 8 5 3 3 5 7 9 11 12 13 14 14 15 16 16 16 15 16 18 18 17 17 18 19
38 35 31 28 23 20 16 13 10 8 7 5 6 7 10 12 13 14 16 17 16 16 17 17 17 16 15 17 18 16 17 19 20
39 35 31 28 24 20 16 14 12 10 8 8 9 11 13 14 15 16 17 16 16 17 19 19 18 18 18 18 16 15 15 21 23
40 36 32 29 24 21 18 15 13 11 10 11 12 14 16 17 16 17 19 23 24 23 21 17 18 20 19 22 17 16 26 26 24
40 37 33 29 25 22 18 15 13 13 13 14 16 15 18 16 17 20 24 20 20 19 19 18 20 18 23 21 20 24 28 25 27
42 38 33 29 25 22 19 17 16 16 16 17 17 16 16 18 21 24 18 19 17 19 20 20 21 25 25 24 28 29 31 33 29
42 38 34 30 27 23 20 19 18 16 17 20 20 21 20 19 17 18 21 21 21 20 19 22 22 24 24 30 29 28 26 29 24
42 39 34 30 26 23 21 18 16 16 15 21 21 22 22 18 22 21 22 21 18 20 21 22 22 21 24 27 27 29 27 23 27
43 38 35 31 28 25 20 20 13 3 19 20 21 22 21 22 25 25 22 20 21 20 20 22 22 18 20 25 25 26 27 28 26

GFSFLT1_700_spd_120.txt.gz
Wind_Speed
11 9 9 9 9 9 8 9 11 12 13 12 12 11 11 11 11 11 11 11 11 12 13 13 13 12 12 11 10 9 9 9 10
13 11 10 11 11 10 9 10 11 13 13 12 11 11 10 12 12 11 12 12 13 14 14 14 14 13 13 11 10 9 9 9 10
15 14 13 12 11 11 11 13 13 13 12 11 11 12 11 13 13 13 12 13 14 15 15 15 16 15 14 12 11 10 10 9 10
18 16 15 13 13 13 14 14 13 12 12 11 11 12 12 13 12 12 12 13 13 13 14 14 15 15 16 15 13 12 11 11 10
21 19 17 15 16 17 16 14 13 12 12 11 11 10 11 11 11 11 10 11 11 12 13 14 15 15 16 16 15 15 14 13 13
23 21 19 18 20 19 17 15 14 12 11 11 10 9 9 10 9 9 9 9 10 11 12 13 14 15 16 16 16 15 14 13 13
25 24 22 22 22 20 18 16 15 14 12 11 10 8 7 8 8 8 8 10 11 12 13 14 14 15 16 16 16 17 15 13 14
28 26 25 25 23 21 19 17 16 14 13 11 8 7 7 8 6 7 8 9 10 12 13 14 14 14 15 15 16 16 15 15 15
30 26 26 25 24 22 20 18 16 14 12 10 8 7 7 7 6 7 8 9 10 11 12 13 14 15 15 16 17 16 16 17 17
29 27 27 27 25 23 20 18 15 13 11 9 7 5 4 5 4 6 7 9 10 11 12 13 13 14 15 15 16 17 17 18 17
30 30 30 29 27 24 21 17 14 12 9 7 4 2 2 5 6 7 9 10 11 12 12 13 13 14 14 15 16 16 17 17 18
31 32 33 30 27 24 20 17 14 11 8 5 2 1 4 6 9 9 10 12 13 13 13 13 14 15 14 16 17 17 15 16 20
35 36 36 32 28 24 20 16 13 10 7 3 2 4 6 9 11 13 14 14 15 15 15 14 17 14 14 15 16 17 14 16 22
39 39 37 33 28 24 20 16 13 9 6 4 5 7 9 12 14 14 13 14 16 17 19 21 20 15 14 14 15 14 14 21 22
41 40 36 32 28 24 19 16 12 9 7 7 8 11 13 14 14 14 15 19 20 19 18 17 17 17 16 15 20 19 19 27 28
41 39 36 32 28 24 20 16 12 10 9 9 12 14 14 17 13 15 18 21 17 17 16 15 15 15 15 19 20 23 23 29 25
42 40 38 34 29 25 20 17 14 12 12 13 14 17 16 16 15 15 16 15 19 19 18 16 15 15 17 20 20 24 25 27 26
44 43 39 34 29 24 21 18 16 16 15 13 16 17 18 19 17 17 15 17 20 17 17 17 19 21 21 19 21 22 22 24 24
45 44 39 34 31 27 24 22 20 19 14 16 18 20 18 22 22 18 18 21 19 17 17 17 15 14 17 15 16 17 19 21 21
46 44 39 36 33 30 26 23 22 19 12 13 18 20 21 18 21 22 19 20 19 18 16 17 15 15 14 16 17 19 18 18 19

GFSFLT1_700_spd_123.txt.gz
Wind_Speed
10 9 9 7 7 9 9 9 10 11 11 11 12 13 13 13 13 12 12 12 13 13 12 13 12 12 12 12 11 10 11 11 11
12 11 10 10 9 9 10 11 11 12 12 12 12 13 12 13 13 13 13 13 13 14 14 14 14 14 13 12 12 11 12 11 12
14 13 13 12 11 10 12 13 13 12 12 12 13 14 13 14 14 13 13 13 14 14 15 15 16 16 15 14 13 12 12 12 12
16 15 15 14 13 12 14 15 13 12 12 12 13 15 14 14 13 13 13 13 13 14 14 15 15 15 16 16 15 14 13 13 13
18 18 17 16 15 15 16 15 13 13 12 12 13 13 12 12 12 12 11 11 12 13 13 14 15 16 16 16 16 16 14 14 15
20 20 19 17 17 18 17 16 14 13 13 13 13 12 11 11 11 10 10 11 12 13 14 14 14 14 14 15 16 16 14 14 15
22 23 21 19 20 20 18 17 16 15 14 13 12 12 9 10 9 9 10 10 11 12 13 14 14 14 15 15 15 15 16 16 17
27 26 24 22 23 21 19 18 16 15 14 12 11 11 9 9 8 8 9 9 10 10 11 11 11 12 13 14 15 15 16 18 18
30 28 24 24 24 22 20 19 17 15 14 13 12 11 9 8 7 6 7 7 7 8 8 9 10 10 12 13 14 15 15 15 17
31 29 26 27 25 24 22 20 18 15 13 13 11 10 8 6 5 4 4 5 6 7 8 8 9 10 11 12 13 14 14 13 15
32 30 29 29 28 26 24 20 18 16 14 11 9 6 5 3 1 3 5 7 9 10 11 11 11 12 12 12 13 13 13 12 16
33 32 31 31 30 27 24 21 19 16 13 10 6 3 1 1 3 5 8 10 11 12 13 13 14 16 15 13 13 15 13 10 19
36 34 34 34 31 28 25 22 19 15 13 10 7 5 4 5 7 8 9 10 10 11 13 13 14 17 16 14 14 17 14 14 21
38 35 37 35 32 28 25 22 18 15 12 10 8 7 6 8 10 12 11 10 12 15 12 13 11 11 11 13 13 17 17 20 23
40 39 39 36 32 30 25 22 19 15 13 11 9 8 8 11 12 11 11 11 15 13 12 10 10 10 11 10 12 15 17 16 21
42 41 40 36 33 29 25 23 20 17 15 13 10 10 11 13 11 10 13 12 10 14 14 11 10 10 10 12 15 16 19 21 23
41 40 39 35 35 31 27 24 20 18 16 14 12 13 14 13 11 11 12 11 13 16 13 8 8 12 12 11 15 18 21 21 20
42 39 37 37 36 32 27 25 22 19 17 14 14 16 15 14 14 11 11 13 15 15 13 13 11 9 13 11 17 16 18 17 17
42 39 40 40 37 33 30 27 23 20 17 16 17 18 19 14 13 16 14 15 16 16 13 13 14 15 14 14 15 16 17 18 17
42 41 42 42 39 36 32 28 24 22 20 17 17 16 19 15 15 13 13 14 16 16 14 13 12 12 13 14 14 17 18 18 19

GFSFLT1_700_spd_126.txt.gz
Wind_Speed
9 8 7 5 6 8 7 7 9 10 11 12 12 13 12 11 11 11 11 11 12 13 13 13 13 14 13 12 11 11 12 12 12
11 10 9 8 8 7 8 9 10 11 13 13 12 12 12 12 12 12 12 13 14 14 14 15 15 15 14 13 13 12 12 12 13
13 12 11 10 9 8 10 10 11 12 12 12 12 13 13 13 13 13 13 13 13 13 14 14 14 14 15 14 13 13 13 13 14
15 14 13 12 11 10 11 12 12 12 13 13 13 13 13 13 13 13 12 12 12 13 13 13 13 14 14 14 14 14 13 14 16
18 16 15 14 12 12 14 14 12 12 14 13 13 12 12 12 11 11 11 11 11 12 12 12 12 12 12 13 13 13 13 14 15
21 18 17 16 14 15 16 15 13 13 14 14 12 12 11 11 9 10 10 11 11 11 11 11 11 11 11 11 12 13 13 14 16
22 21 20 18 17 17 17 16 15 14 15 14 13 11 10 10 10 9 10 10 9 9 8 8 9 9 10 11 12 13 13 15 16
26 24 23 21 20 20 19 16 16 15 15 14 12 11 10 10 9 8 7 6 5 5 6 6 7 9 10 11 12 13 13 14 14
28 25 24 22 21 22 20 18 16 16 15 15 13 11 10 9 7 5 4 2 3 4 6 7 9 10 11 11 12 12 12 12 14
28 27 26 24 24 23 20 19 18 17 15 15 14 12 10 8 5 3 1 3 5 7 8 9 10 10 13 12 12 13 14 13 18
30 29 29 27 26 24 22 20 19 17 17 16 15 12 9 6 4 2 4 6 8 9 9 10 10 9 12 13 12 13 13 7 13
32 31 32 30 29 27 26 24 21 20 17 15 13 12 10 6 3 5 6 8 8 8 8 10 11 11 11 10 10 10 14 12 15
34 34 34 32 32 29 28 25 22 20 18 15 13 10 8 5 5 7 8 9 8 9 11 10 12 11 10 9 9 12 13 15 18
35 37 36 35 34 31 29 27 24 20 18 16 13 11 8 7 8 8 8 8 9 10 8 8 6 6 8 8 9 11 13 15 15
37 39 39 38 36 33 32 29 25 23 20 18 16 13 11 10 10 10 8 9 8 7 8 8 7 9 7 8 9 12 15 16 21
40 42 42 40 37 35 33 31 28 24 22 19 17 14 12 10 12 11 11 10 7 8 10 9 8 9 8 11 11 14 19 20 22
44 44 45 40 39 38 36 33 29 26 23 20 18 15 13 13 14 12 13 13 11 11 11 9 10 10 9 11 11 14 15 16 18
41 44 46 42 41 40 38 34 30 26 24 21 19 16 15 15 15 14 15 14 14 14 13 11 12 12 12 10 14 14 16 14 14
45 44 45 42 41 42 38 34 30 27 24 22 19 18 15 17 17 15 17 16 15 15 15 13 12 13 12 13 15 14 14 14 16
43 44 45 44 43 42 40 35 32 29 26 22 20 18 17 16 16 13 16 16 16 17 18 16 15 14 15 15 15 16 16 17 16

GFSFLT1_700_spd_129.txt.gz
Wind_Speed
7 6 5 5 3 5 5 6 8 9 10 10 10 10 9 8 10 11 11 11 12 13 13 13 12 11 11 11 11 12 13 14 14
9 7 6 7 4 4 5 7 9 10 10 11 10 9 8 9 11 12 12 11 12 12 12 12 11 11 12 11 12 13 13 14 14
9 8 7 9 6 5 6 8 10 11 10 10 10 10 10 11 12 11 10 10 10 10 10 10 10 10 11 12 12 13 13 14 15
12 11 9 9 9 7 7 9 11 11 11 11 11 11 11 11 11 10 8 8 8 8 9 9 9 9 10 11 12 12 14 15 16
16 13 12 11 10 9 9 10 11 11 12 11 12 11 11 11 9 8 7 7 8 8 9 9 8 9 11 12 12 13 14 16 20
19 16 15 14 12 11 10 11 12 12 12 12 12 11 10 9 8 7 7 8 7 7 7 8 9 10 11 11 12 13 15 18 19
20 18 18 17 15 13 12 13 13 14 14 13 12 11 10 8 7 7 7 6 5 4 6 7 8 10 10 11 12 14 15 15 17
25 22 21 20 17 15 15 14 14 14 15 13 12 11 9 8 8 7 5 3 2 4 6 8 9 10 10 11 11 13 13 13 15
27 23 22 21 18 17 16 16 14 16 15 14 13 12 11 10 8 5 2 1 3 6 8 9 10 10 11 12 12 12 12 11 16
29 26 24 23 21 19 18 17 16 16 17 15 14 13 11 10 7 4 3 4 6 8 9 10 9 10 10 11 10 11 11 7 11
30 29 26 25 23 21 20 18 18 18 18 16 15 14 12 10 7 5 5 7 8 9 9 8 10 11 11 12 8 8 10 7 10
32 32 29 27 26 24 24 23 22 21 19 18 16 14 12 10 7 6 7 9 9 9 9 11 11 12 11 9 7 9 10 11 13
35 35 32 30 29 27 26 25 24 22 21 20 18 16 14 10 9 8 8 10 10 11 11 11 11 9 9 8 10 13 13 14 14
37 36 34 33 33 29 28 27 25 24 23 20 19 18 15 12 11 9 9 11 10 11 13 11 10 9 11 7 9 13 13 15 17
38 37 36 36 36 33 31 30 28 26 24 22 20 19 16 13 11 11 11 11 12 11 10 12 12 11 10 12 11 13 15 17 20
39 39 38 39 38 34 33 33 32 31 28 25 23 19 17 14 13 13 12 13 12 11 11 12 13 12 13 13 16 16 17 19 17
44 42 40 41 42 39 37 36 35 33 30 26 23 22 19 16 15 15 14 14 15 15 14 13 15 15 15 14 14 15 16 18 16
48 47 46 47 45 41 38 39 36 33 30 27 26 23 20 17 17 17 16 15 16 17 17 16 17 16 15 16 16 14 18 16 16
51 54 49 44 46 44 41 39 37 35 32 29 25 23 20 19 19 18 16 16 16 16 17 18 18 16 16 16 15 15 16 17 17
51 60 44 55 46 45 43 42 40 37 33 29 26 23 21 20 21 18 16 18 18 17 18 17 19 19 18 18 17 17 17 17 18

GFSFLT1_700_spd_132.txt.gz
Wind_Speed
4 3 2 2 5 4 1 4 6 7 8 8 8 7 7 7 8 9 9 10 11 11 10 10 11 11 11 11 11 12 15 18 19
6 5 4 3 3 4 2 4 7 7 8 9 8 8 7 8 9 10 10 9 9 9 8 9 10 10 11 12 13 16 17 19 19
8 6 6 3 2 2 3 5 7 8 8 9 9 8 8 10 10 9 8 8 7 7 7 8 9 10 11 13 15 17 18 18 17
10 8 7 5 4 2 2 6 7 8 9 9 9 9 9 10 8 7 6 6 6 7 8 9 9 11 12 14 15 16 16 17 18
13 11 9 8 7 5 4 7 8 8 9 10 10 11 9 8 7 6 6 6 7 7 8 8 9 11 12 13 13 14 15 17 19
17 14 13 11 9 7 6 9 9 9 10 11 11 10 9 8 6 6 5 5 5 5 6 7 8 10 11 12 13 14 15 16 19
19 17 16 13 12 10 8 11 11 11 11 11 11 11 9 7 6 6 5 3 3 4 6 7 9 10 11 12 12 13 13 15 16
22 20 18 16 14 12 10 11 12 12 13 13 12 11 10 8 7 6 3 1 2 5 7 9 9 10 10 11 11 11 11 14 14
24 22 20 18 16 14 12 12 14 14 14 14 13 12 10 9 8 6 3 2 4 6 8 10 10 10 10 11 11 9 9 8 9
25 23 23 20 19 17 15 14 15 16 16 15 14 13 11 10 8 6 4 5 6 8 9 10 10 12 11 11 9 7 8 7 9
26 25 25 24 22 20 18 16 17 17 17 16 15 14 13 12 9 7 6 8 9 9 9 10 12 12 11 9 7 6 9 10 11
27 27 27 26 25 24 22 21 21 20 20 19 18 16 15 13 10 8 8 9 11 11 11 12 12 11 10 10 9 10 11 12 13
29 29 28 29 28 28 26 23 22 22 21 21 19 18 17 15 12 10 10 11 12 12 12 12 11 10 10 11 11 12 13 14 14
30 29 31 33 31 31 29 26 25 23 23 23 22 20 19 16 13 12 11 12 12 12 12 11 11 11 12 14 12 13 16 16 16
36 33 35 36 34 34 32 29 27 25 25 25 25 23 21 18 15 13 12 13 14 14 14 12 13 14 13 13 15 16 18 18 18
44 38 38 39 37 35 33 32 31 30 29 28 28 25 24 20 17 15 14 14 13 14 15 14 15 16 16 15 14 15 19 18 18
41 43 38 41 39 39 38 36 34 34 33 30 28 27 26 22 18 16 16 15 15 14 15 15 16 17 17 16 16 16 16 15 17
41 43 42 43 41 41 40 39 37 35 34 32 31 29 26 22 20 18 17 17 16 15 15 15 16 17 18 17 17 17 16 16 17
36 44 40 43 45 44 40 40 40 38 37 35 33 30 28 25 22 19 18 18 17 16 14 14 16 18 19 16 17 19 16 16 16
51 43 37 48 48 49 46 43 43 41 39 36 33 31 29 26 23 21 20 20 18 18 18 17 19 20 20 19 17 18 18 17 17